| time (UTC) | temp F | wind direction | speed MPH | gust MPH | rain 1hr in | rain 24hr in | rain mn in | humidity % | barometer mb |
| 20260503205303 | 61 | 68 | 1.0 | 7.0 | 0.00 | 0.00 | 0.00 | 38 | 1014.9 |
| 20260503205201 | 61 | 163 | 2.0 | 9.0 | 0.00 | 0.00 | 0.00 | 41 | 1014.9 |
| 20260503205100 | 61 | 207 | 2.0 | 9.0 | 0.00 | 0.00 | 0.00 | 39 | 1014.9 |
| 20260503205004 | 61 | 109 | 1.0 | 9.0 | 0.00 | 0.00 | 0.00 | 39 | 1014.9 |
| 20260503204800 | 61 | 326 | 2.0 | 9.0 | 0.00 | 0.00 | 0.00 | 41 | 1014.9 |
| 20260503204605 | 61 | 323 | 1.0 | 9.0 | 0.00 | 0.00 | 0.00 | 39 | 1015.0 |
| 20260503204501 | 62 | 142 | 2.0 | 9.0 | 0.00 | 0.00 | 0.00 | 38 | 1015.0 |
| 20260503204402 | 62 | 184 | 2.0 | 9.0 | 0.00 | 0.00 | 0.00 | 39 | 1015.0 |
| 20260503204302 | 62 | 202 | 1.0 | 7.0 | 0.00 | 0.00 | 0.00 | 41 | 1015.0 |
| 20260503204200 | 62 | 227 | 0.0 | 7.0 | 0.00 | 0.00 | 0.00 | 40 | 1015.1 |
| 20260503204059 | 62 | 154 | 1.0 | 10.0 | 0.00 | 0.00 | 0.00 | 38 | 1014.9 |
| 20260503203900 | 62 | 194 | 3.0 | 10.0 | 0.00 | 0.00 | 0.00 | 38 | 1015.0 |
| 20260503203801 | 62 | 257 | 0.0 | 10.0 | 0.00 | 0.00 | 0.00 | 38 | 1014.9 |
| 20260503203700 | 62 | 232 | 3.0 | 10.0 | 0.00 | 0.00 | 0.00 | 39 | 1014.9 |
| 20260503203602 | 62 | 140 | 1.0 | 10.0 | 0.00 | 0.00 | 0.00 | 38 | 1015.0 |
| 20260503203501 | 62 | 144 | 3.0 | 10.0 | 0.00 | 0.00 | 0.00 | 37 | 1015.0 |
| 20260503203301 | 63 | 108 | 1.0 | 10.0 | 0.00 | 0.00 | 0.00 | 37 | 1015.0 |
| 20260503203200 | 63 | 148 | 3.0 | 11.0 | 0.00 | 0.00 | 0.00 | 38 | 1015.0 |
| 20260503203100 | 63 | 179 | 4.0 | 10.0 | 0.00 | 0.00 | 0.00 | 38 | 1015.0 |
| 20260503202801 | 63 | 244 | 2.0 | 7.0 | 0.00 | 0.00 | 0.00 | 37 | 1015.0 |
| 20260503202700 | 63 | 340 | 1.0 | 7.0 | 0.00 | 0.00 | 0.00 | 38 | 1014.9 |
| 20260503202601 | 63 | 312 | 2.0 | 7.0 | 0.00 | 0.00 | 0.00 | 38 | 1014.9 |
| 20260503202402 | 63 | 174 | 2.0 | 6.0 | 0.00 | 0.00 | 0.00 | 39 | 1014.8 |
| 20260503202300 | 63 | 108 | 0.0 | 6.0 | 0.00 | 0.00 | 0.00 | 41 | 1014.9 |
| 20260503202201 | 63 | 230 | 1.0 | 6.0 | 0.00 | 0.00 | 0.00 | 39 | 1014.9 |
| 20260503202059 | 63 | 169 | 1.0 | 7.0 | 0.00 | 0.00 | 0.00 | 37 | 1015.0 |
| 20260503202000 | 63 | 214 | 2.0 | 7.0 | 0.00 | 0.00 | 0.00 | 39 | 1014.9 |
| 20260503201901 | 63 | 300 | 1.0 | 7.0 | 0.00 | 0.00 | 0.00 | 39 | 1014.9 |
| 20260503201800 | 62 | 194 | 3.0 | 7.0 | 0.00 | 0.00 | 0.00 | 39 | 1015.0 |
| 20260503201701 | 62 | 227 | 1.0 | 7.0 | 0.00 | 0.00 | 0.00 | 38 | 1015.0 |
| 20260503201601 | 62 | 198 | 4.0 | 10.0 | 0.00 | 0.00 | 0.00 | 40 | 1015.0 |
| 20260503201500 | 62 | 27 | 0.0 | 11.0 | 0.00 | 0.00 | 0.00 | 38 | 1015.1 |
| 20260503201401 | 62 | 183 | 4.0 | 11.0 | 0.00 | 0.00 | 0.00 | 38 | 1015.1 |
| 20260503201301 | 62 | 142 | 1.0 | 11.0 | 0.00 | 0.00 | 0.00 | 37 | 1015.1 |
| 20260503201200 | 62 | 208 | 3.0 | 11.0 | 0.00 | 0.00 | 0.00 | 38 | 1015.2 |
| 20260503201102 | 62 | 199 | 2.0 | 11.0 | 0.00 | 0.00 | 0.00 | 37 | 1015.1 |
| 20260503201001 | 62 | 178 | 4.0 | 11.0 | 0.00 | 0.00 | 0.00 | 38 | 1015.0 |
| 20260503200800 | 63 | 187 | 4.0 | 11.0 | 0.00 | 0.00 | 0.00 | 38 | 1015.2 |
| 20260503200701 | 63 | 198 | 8.0 | 11.0 | 0.00 | 0.00 | 0.00 | 41 | 1015.1 |
| 20260503200601 | 62 | 202 | 4.0 | 9.0 | 0.00 | 0.00 | 0.00 | 41 | 1015.2 |
| 20260503200302 | 62 | 153 | 3.0 | 9.0 | 0.00 | 0.00 | 0.00 | 38 | 1015.2 |
| 20260503200200 | 62 | 153 | 3.0 | 9.0 | 0.00 | 0.00 | 0.00 | 39 | 1015.3 |
| 20260503200100 | 62 | 207 | 0.0 | 5.0 | 0.00 | 0.00 | 0.00 | 38 | 1015.3 |
| 20260503200005 | 62 | 202 | 2.0 | 5.0 | 0.00 | 0.00 | 0.00 | 39 | 1015.3 |
| 20260503195901 | 62 | 132 | 2.0 | 5.0 | 0.00 | 0.00 | 0.00 | 39 | 1015.2 |
| 20260503195759 | 62 | 173 | 2.0 | 5.0 | 0.00 | 0.00 | 0.00 | 40 | 1015.3 |
| 20260503195602 | 62 | 179 | 3.0 | 7.0 | 0.00 | 0.00 | 0.00 | 41 | 1015.3 |
| 20260503195501 | 61 | 341 | 2.0 | 8.0 | 0.00 | 0.00 | 0.00 | 40 | 1015.3 |
| 20260503195401 | 61 | 148 | 1.0 | 8.0 | 0.00 | 0.00 | 0.00 | 39 | 1015.3 |
| 20260503195300 | 61 | 145 | 4.0 | 11.0 | 0.00 | 0.00 | 0.00 | 40 | 1015.3 |
| 20260503195201 | 61 | 159 | 2.0 | 11.0 | 0.00 | 0.00 | 0.00 | 41 | 1015.3 |
| 20260503195100 | 61 | 144 | 0.0 | 11.0 | 0.00 | 0.00 | 0.00 | 39 | 1015.3 |
| 20260503195000 | 61 | 150 | 4.0 | 11.0 | 0.00 | 0.00 | 0.00 | 38 | 1015.4 |
| 20260503194901 | 61 | 178 | 4.0 | 11.0 | 0.00 | 0.00 | 0.00 | 40 | 1015.4 |
| 20260503194800 | 61 | 260 | 2.0 | 11.0 | 0.00 | 0.00 | 0.00 | 40 | 1015.5 |
| 20260503194700 | 61 | 308 | 4.0 | 11.0 | 0.00 | 0.00 | 0.00 | 38 | 1015.5 |
| 20260503194601 | 61 | 198 | 3.0 | 11.0 | 0.00 | 0.00 | 0.00 | 38 | 1015.4 |
| 20260503194501 | 61 | 208 | 8.0 | 11.0 | 0.00 | 0.00 | 0.00 | 39 | 1015.4 |
| 20260503194401 | 61 | 154 | 6.0 | 10.0 | 0.00 | 0.00 | 0.00 | 39 | 1015.4 |
| 20260503194300 | 61 | 284 | 1.0 | 9.0 | 0.00 | 0.00 | 0.00 | 38 | 1015.4 |
| 20260503194200 | 61 | 217 | 2.0 | 8.0 | 0.00 | 0.00 | 0.00 | 40 | 1015.5 |
| 20260503194103 | 61 | 191 | 0.0 | 8.0 | 0.00 | 0.00 | 0.00 | 40 | 1015.5 |
| 20260503194001 | 61 | 171 | 7.0 | 8.0 | 0.00 | 0.00 | 0.00 | 39 | 1015.5 |
| 20260503193901 | 61 | 179 | 2.0 | 8.0 | 0.00 | 0.00 | 0.00 | 38 | 1015.5 |
| 20260503193800 | 61 | 109 | 2.0 | 8.0 | 0.00 | 0.00 | 0.00 | 39 | 1015.7 |
| 20260503193703 | 61 | 202 | 4.0 | 8.0 | 0.00 | 0.00 | 0.00 | 38 | 1015.7 |
| 20260503193602 | 61 | 137 | 3.0 | 15.0 | 0.00 | 0.00 | 0.00 | 39 | 1015.7 |
| 20260503193500 | 61 | 306 | 2.0 | 15.0 | 0.00 | 0.00 | 0.00 | 38 | 1015.8 |
| 20260503193401 | 61 | 208 | 2.0 | 15.0 | 0.00 | 0.00 | 0.00 | 37 | 1015.9 |
| 20260503193300 | 61 | 252 | 2.0 | 15.0 | 0.00 | 0.00 | 0.00 | 38 | 1015.9 |
| 20260503193200 | 61 | 299 | 4.0 | 15.0 | 0.00 | 0.00 | 0.00 | 38 | 1015.9 |
| 20260503193000 | 61 | 300 | 3.0 | 15.0 | 0.00 | 0.00 | 0.00 | 37 | 1016.0 |
| 20260503192902 | 61 | 132 | 1.0 | 15.0 | 0.00 | 0.00 | 0.00 | 38 | 1016.0 |
| 20260503192802 | 61 | 313 | 2.0 | 15.0 | 0.00 | 0.00 | 0.00 | 36 | 1016.1 |
| 20260503192700 | 62 | 183 | 8.0 | 10.0 | 0.00 | 0.00 | 0.00 | 39 | 1016.0 |
| 20260503192600 | 62 | 200 | 2.0 | 10.0 | 0.00 | 0.00 | 0.00 | 37 | 1016.0 |
| 20260503192459 | 62 | 210 | 8.0 | 10.0 | 0.00 | 0.00 | 0.00 | 37 | 1016.1 |
| 20260503192400 | 62 | 207 | 4.0 | 10.0 | 0.00 | 0.00 | 0.00 | 37 | 1016.1 |
| 20260503192301 | 62 | 316 | 2.0 | 10.0 | 0.00 | 0.00 | 0.00 | 38 | 1016.1 |
| 20260503192200 | 62 | 190 | 1.0 | 11.0 | 0.00 | 0.00 | 0.00 | 38 | 1016.2 |
| 20260503192059 | 62 | 218 | 1.0 | 9.0 | 0.00 | 0.00 | 0.00 | 37 | 1016.2 |
| 20260503191801 | 62 | 140 | 0.0 | 8.0 | 0.00 | 0.00 | 0.00 | 37 | 1016.2 |
| 20260503191700 | 62 | 227 | 2.0 | 8.0 | 0.00 | 0.00 | 0.00 | 38 | 1016.2 |
| 20260503191600 | 62 | 217 | 3.0 | 8.0 | 0.00 | 0.00 | 0.00 | 36 | 1016.1 |
| 20260503191501 | 62 | 168 | 6.0 | 10.0 | 0.00 | 0.00 | 0.00 | 36 | 1016.2 |
| 20260503191301 | 63 | 235 | 1.0 | 12.0 | 0.00 | 0.00 | 0.00 | 38 | 1016.1 |
| 20260503191200 | 63 | 196 | 3.0 | 12.0 | 0.00 | 0.00 | 0.00 | 36 | 1016.2 |
| 20260503191101 | 63 | 218 | 6.0 | 12.0 | 0.00 | 0.00 | 0.00 | 35 | 1016.2 |
| 20260503191002 | 63 | 98 | 1.0 | 12.0 | 0.00 | 0.00 | 0.00 | 36 | 1016.2 |
| 20260503190901 | 63 | 344 | 1.0 | 12.0 | 0.00 | 0.00 | 0.00 | 36 | 1016.3 |
| 20260503190800 | 63 | 219 | 1.0 | 12.0 | 0.00 | 0.00 | 0.00 | 37 | 1016.2 |
| 20260503190700 | 63 | 214 | 2.0 | 12.0 | 0.00 | 0.00 | 0.00 | 37 | 1016.3 |
| 20260503190600 | 63 | 198 | 4.0 | 12.0 | 0.00 | 0.00 | 0.00 | 38 | 1016.2 |
| 20260503190400 | 63 | 165 | 5.0 | 10.0 | 0.00 | 0.00 | 0.00 | 38 | 1016.3 |
| 20260503190300 | 63 | 211 | 3.0 | 10.0 | 0.00 | 0.00 | 0.00 | 36 | 1016.4 |
| 20260503190201 | 63 | 176 | 4.0 | 10.0 | 0.00 | 0.00 | 0.00 | 38 | 1016.5 |
| 20260503190101 | 63 | 175 | 3.0 | 10.0 | 0.00 | 0.00 | 0.00 | 37 | 1016.4 |
| 20260503190001 | 63 | 162 | 2.0 | 10.0 | 0.00 | 0.00 | 0.00 | 36 | 1016.5 |
| 20260503185859 | 63 | 187 | 1.0 | 10.0 | 0.00 | 0.00 | 0.00 | 38 | 1016.4 |
| 20260503185802 | 63 | 92 | 3.0 | 12.0 | 0.00 | 0.00 | 0.00 | 38 | 1016.3 |
| 20260503185701 | 63 | 286 | 10.0 | 12.0 | 0.00 | 0.00 | 0.00 | 39 | 1016.4 |
| 20260503185604 | 63 | 136 | 3.0 | 12.0 | 0.00 | 0.00 | 0.00 | 41 | 1016.4 |
| 20260503185501 | 63 | 298 | 4.0 | 12.0 | 0.00 | 0.00 | 0.00 | 43 | 1016.4 |
| 20260503185401 | 62 | 157 | 0.0 | 12.0 | 0.00 | 0.00 | 0.00 | 42 | 1016.4 |
| 20260503185300 | 62 | 185 | 1.0 | 12.0 | 0.00 | 0.00 | 0.00 | 41 | 1016.2 |
| 20260503185159 | 62 | 178 | 4.0 | 12.0 | 0.00 | 0.00 | 0.00 | 38 | 1016.3 |
| 20260503185102 | 62 | 166 | 1.0 | 12.0 | 0.00 | 0.00 | 0.00 | 35 | 1016.2 |
| 20260503185000 | 62 | 148 | 10.0 | 13.0 | 0.00 | 0.00 | 0.00 | 37 | 1016.4 |
| 20260503184901 | 62 | 167 | 4.0 | 6.0 | 0.00 | 0.00 | 0.00 | 39 | 1016.4 |
| 20260503184803 | 62 | 161 | 1.0 | 6.0 | 0.00 | 0.00 | 0.00 | 38 | 1016.5 |
| 20260503184700 | 62 | 174 | 2.0 | 7.0 | 0.00 | 0.00 | 0.00 | 37 | 1016.6 |
| 20260503184600 | 62 | 174 | 2.0 | 7.0 | 0.00 | 0.00 | 0.00 | 37 | 1016.6 |
| 20260503184501 | 62 | 198 | 3.0 | 9.0 | 0.00 | 0.00 | 0.00 | 40 | 1016.6 |
| 20260503184400 | 62 | 191 | 3.0 | 9.0 | 0.00 | 0.00 | 0.00 | 39 | 1016.6 |
| 20260503184301 | 62 | 136 | 3.0 | 9.0 | 0.00 | 0.00 | 0.00 | 39 | 1016.6 |
| 20260503184201 | 62 | 198 | 4.0 | 9.0 | 0.00 | 0.00 | 0.00 | 38 | 1016.6 |
| 20260503184102 | 62 | 216 | 3.0 | 9.0 | 0.00 | 0.00 | 0.00 | 40 | 1016.6 |
| 20260503183901 | 62 | 311 | 1.0 | 9.0 | 0.00 | 0.00 | 0.00 | 37 | 1016.7 |
| 20260503183802 | 62 | 192 | 6.0 | 11.0 | 0.00 | 0.00 | 0.00 | 38 | 1016.7 |
| 20260503183700 | 62 | 185 | 4.0 | 11.0 | 0.00 | 0.00 | 0.00 | 39 | 1016.8 |
| 20260503183600 | 62 | 275 | 2.0 | 11.0 | 0.00 | 0.00 | 0.00 | 39 | 1016.8 |
| 20260503183500 | 62 | 233 | 8.0 | 11.0 | 0.00 | 0.00 | 0.00 | 42 | 1016.7 |
| 20260503183300 | 61 | 205 | 1.0 | 11.0 | 0.00 | 0.00 | 0.00 | 41 | 1016.8 |
| 20260503183201 | 61 | 148 | 3.0 | 11.0 | 0.00 | 0.00 | 0.00 | 40 | 1016.7 |
| 20260503183000 | 61 | 251 | 3.0 | 11.0 | 0.00 | 0.00 | 0.00 | 38 | 1016.9 |
| 20260503182859 | 61 | 221 | 7.0 | 7.0 | 0.00 | 0.00 | 0.00 | 40 | 1016.8 |
| 20260503182800 | 61 | 187 | 1.0 | 7.0 | 0.00 | 0.00 | 0.00 | 41 | 1016.7 |
| 20260503182559 | 61 | 195 | 5.0 | 7.0 | 0.00 | 0.00 | 0.00 | 40 | 1016.8 |
| 20260503182500 | 61 | 206 | 0.0 | 7.0 | 0.00 | 0.00 | 0.00 | 42 | 1016.8 |
| 20260503182402 | 61 | 202 | 2.0 | 7.0 | 0.00 | 0.00 | 0.00 | 39 | 1016.7 |
| 20260503182304 | 61 | 195 | 2.0 | 10.0 | 0.00 | 0.00 | 0.00 | 39 | 1016.9 |
| 20260503182200 | 61 | 222 | 0.0 | 10.0 | 0.00 | 0.00 | 0.00 | 38 | 1016.9 |
| 20260503182102 | 61 | 146 | 2.0 | 10.0 | 0.00 | 0.00 | 0.00 | 39 | 1016.9 |
| 20260503182000 | 61 | 346 | 3.0 | 10.0 | 0.00 | 0.00 | 0.00 | 37 | 1016.9 |
| 20260503181901 | 61 | 329 | 1.0 | 10.0 | 0.00 | 0.00 | 0.00 | 39 | 1016.9 |
| 20260503181759 | 61 | 171 | 2.0 | 10.0 | 0.00 | 0.00 | 0.00 | 40 | 1016.9 |
| 20260503181700 | 61 | 202 | 1.0 | 10.0 | 0.00 | 0.00 | 0.00 | 39 | 1016.9 |
| 20260503181600 | 61 | 169 | 4.0 | 10.0 | 0.00 | 0.00 | 0.00 | 35 | 1016.8 |
| 20260503181501 | 61 | 175 | 3.0 | 10.0 | 0.00 | 0.00 | 0.00 | 35 | 1016.9 |
| 20260503181400 | 61 | 158 | 9.0 | 9.0 | 0.00 | 0.00 | 0.00 | 38 | 1016.9 |
| 20260503181300 | 61 | 319 | 1.0 | 8.0 | 0.00 | 0.00 | 0.00 | 39 | 1016.9 |
| 20260503181203 | 61 | 202 | 2.0 | 8.0 | 0.00 | 0.00 | 0.00 | 40 | 1016.9 |
| 20260503181059 | 61 | 215 | 1.0 | 8.0 | 0.00 | 0.00 | 0.00 | 40 | 1017.0 |
| 20260503181001 | 61 | 242 | 0.0 | 8.0 | 0.00 | 0.00 | 0.00 | 39 | 1017.0 |
| 20260503180902 | 61 | 175 | 3.0 | 8.0 | 0.00 | 0.00 | 0.00 | 39 | 1016.9 |
| 20260503180802 | 61 | 190 | 3.0 | 8.0 | 0.00 | 0.00 | 0.00 | 38 | 1016.9 |
| 20260503180700 | 61 | 200 | 3.0 | 9.0 | 0.00 | 0.00 | 0.00 | 36 | 1017.1 |
| 20260503180601 | 61 | 300 | 0.0 | 9.0 | 0.00 | 0.00 | 0.00 | 37 | 1017.1 |
| 20260503180459 | 62 | 150 | 5.0 | 9.0 | 0.00 | 0.00 | 0.00 | 38 | 1017.2 |
| 20260503180402 | 62 | 163 | 2.0 | 9.0 | 0.00 | 0.00 | 0.00 | 40 | 1017.2 |
| 20260503180302 | 61 | 193 | 3.0 | 9.0 | 0.00 | 0.00 | 0.00 | 38 | 1017.2 |
| 20260503180200 | 61 | 162 | 1.0 | 9.0 | 0.00 | 0.00 | 0.00 | 39 | 1017.3 |
| 20260503180100 | 61 | 313 | 2.0 | 9.0 | 0.00 | 0.00 | 0.00 | 38 | 1017.3 |
| 20260503180002 | 61 | 248 | 2.0 | 9.0 | 0.00 | 0.00 | 0.00 | 36 | 1017.3 |
| 20260503175802 | 61 | 215 | 6.0 | 9.0 | 0.00 | 0.00 | 0.00 | 40 | 1017.4 |
| 20260503175700 | 61 | 174 | 1.0 | 9.0 | 0.00 | 0.00 | 0.00 | 43 | 1017.3 |
| 20260503175601 | 61 | 180 | 5.0 | 9.0 | 0.00 | 0.00 | 0.00 | 37 | 1017.4 |
| 20260503175400 | 61 | 190 | 3.0 | 10.0 | 0.00 | 0.00 | 0.00 | 39 | 1017.3 |
| 20260503175304 | 61 | 181 | 5.0 | 8.0 | 0.00 | 0.00 | 0.00 | 38 | 1017.3 |
| 20260503175200 | 61 | 196 | 3.0 | 8.0 | 0.00 | 0.00 | 0.00 | 39 | 1017.3 |
| 20260503175100 | 61 | 307 | 0.0 | 9.0 | 0.00 | 0.00 | 0.00 | 40 | 1017.3 |
| 20260503174902 | 61 | 315 | 2.0 | 9.0 | 0.00 | 0.00 | 0.00 | 39 | 1017.2 |
| 20260503174802 | 61 | 147 | 3.0 | 9.0 | 0.00 | 0.00 | 0.00 | 37 | 1017.3 |
| 20260503174700 | 61 | 221 | 3.0 | 11.0 | 0.00 | 0.00 | 0.00 | 39 | 1017.3 |
| 20260503174600 | 61 | 227 | 0.0 | 11.0 | 0.00 | 0.00 | 0.00 | 36 | 1017.3 |
| 20260503174503 | 61 | 240 | 4.0 | 11.0 | 0.00 | 0.00 | 0.00 | 40 | 1017.3 |
| 20260503174300 | 61 | 212 | 0.0 | 11.0 | 0.00 | 0.00 | 0.00 | 39 | 1017.5 |
| 20260503174200 | 60 | 195 | 2.0 | 11.0 | 0.00 | 0.00 | 0.00 | 39 | 1017.4 |
| 20260503174059 | 60 | 196 | 5.0 | 11.0 | 0.00 | 0.00 | 0.00 | 39 | 1017.4 |
| 20260503174000 | 60 | 209 | 4.0 | 11.0 | 0.00 | 0.00 | 0.00 | 39 | 1017.4 |
| 20260503173700 | 60 | 297 | 4.0 | 11.0 | 0.00 | 0.00 | 0.00 | 38 | 1017.5 |
| 20260503173501 | 60 | 225 | 2.0 | 10.0 | 0.00 | 0.00 | 0.00 | 38 | 1017.5 |
| 20260503173400 | 60 | 298 | 5.0 | 9.0 | 0.00 | 0.00 | 0.00 | 41 | 1017.5 |
| 20260503173259 | 60 | 174 | 5.0 | 9.0 | 0.00 | 0.00 | 0.00 | 39 | 1017.5 |
| 20260503173202 | 60 | 86 | 1.0 | 9.0 | 0.00 | 0.00 | 0.00 | 38 | 1017.5 |
| 20260503173101 | 60 | 189 | 2.0 | 9.0 | 0.00 | 0.00 | 0.00 | 38 | 1017.6 |
| 20260503173000 | 60 | 216 | 2.0 | 9.0 | 0.00 | 0.00 | 0.00 | 37 | 1017.6 |
| 20260503172902 | 60 | 173 | 6.0 | 9.0 | 0.00 | 0.00 | 0.00 | 40 | 1017.6 |
| 20260503172801 | 60 | 222 | 2.0 | 9.0 | 0.00 | 0.00 | 0.00 | 37 | 1017.7 |
| 20260503172701 | 60 | 190 | 2.0 | 7.0 | 0.00 | 0.00 | 0.00 | 41 | 1017.7 |
| 20260503172600 | 60 | 257 | 7.0 | 9.0 | 0.00 | 0.00 | 0.00 | 39 | 1017.6 |
| 20260503172500 | 60 | 229 | 1.0 | 9.0 | 0.00 | 0.00 | 0.00 | 39 | 1017.5 |
| 20260503172400 | 60 | 171 | 7.0 | 9.0 | 0.00 | 0.00 | 0.00 | 39 | 1017.6 |
| 20260503172300 | 60 | 238 | 2.0 | 9.0 | 0.00 | 0.00 | 0.00 | 38 | 1017.7 |
| 20260503172202 | 60 | 186 | 4.0 | 9.0 | 0.00 | 0.00 | 0.00 | 39 | 1017.7 |
| 20260503172102 | 60 | 129 | 3.0 | 9.0 | 0.00 | 0.00 | 0.00 | 40 | 1017.8 |
| 20260503172002 | 60 | 210 | 5.0 | 9.0 | 0.00 | 0.00 | 0.00 | 38 | 1017.8 |
| 20260503171800 | 60 | 190 | 5.0 | 9.0 | 0.00 | 0.00 | 0.00 | 40 | 1017.9 |
| 20260503171701 | 60 | 196 | 5.0 | 9.0 | 0.00 | 0.00 | 0.00 | 40 | 1017.9 |
| 20260503171601 | 60 | 181 | 2.0 | 7.0 | 0.00 | 0.00 | 0.00 | 41 | 1018.0 |
| 20260503171459 | 60 | 195 | 3.0 | 7.0 | 0.00 | 0.00 | 0.00 | 39 | 1018.1 |
| 20260503171401 | 60 | 133 | 3.0 | 8.0 | 0.00 | 0.00 | 0.00 | 38 | 1018.1 |
| 20260503171200 | 60 | 131 | 3.0 | 10.0 | 0.00 | 0.00 | 0.00 | 38 | 1018.2 |
| 20260503171102 | 60 | 221 | 5.0 | 10.0 | 0.00 | 0.00 | 0.00 | 38 | 1018.2 |
| 20260503171000 | 60 | 150 | 3.0 | 10.0 | 0.00 | 0.00 | 0.00 | 39 | 1018.2 |
| 20260503170900 | 60 | 31 | 1.0 | 10.0 | 0.00 | 0.00 | 0.00 | 40 | 1018.2 |
| 20260503170801 | 60 | 157 | 0.0 | 10.0 | 0.00 | 0.00 | 0.00 | 39 | 1018.2 |
| 20260503170701 | 60 | 123 | 2.0 | 10.0 | 0.00 | 0.00 | 0.00 | 40 | 1018.2 |
| 20260503170600 | 60 | 200 | 2.0 | 10.0 | 0.00 | 0.00 | 0.00 | 40 | 1018.3 |
| 20260503170501 | 60 | 250 | 1.0 | 10.0 | 0.00 | 0.00 | 0.00 | 39 | 1018.3 |
| 20260503170401 | 60 | 200 | 4.0 | 10.0 | 0.00 | 0.00 | 0.00 | 41 | 1018.3 |
| 20260503170200 | 60 | 194 | 3.0 | 7.0 | 0.00 | 0.00 | 0.00 | 40 | 1018.3 |
| 20260503160159 | 59 | 288 | 2.0 | 9.0 | 0.00 | 0.00 | 0.00 | 46 | 1019.0 |
| 20260503151002 | 55 | 245 | 0.0 | 8.0 | 0.00 | 0.00 | 0.00 | 47 | 1019.5 |
| 20260503150901 | 55 | 142 | 4.0 | 8.0 | 0.00 | 0.00 | 0.00 | 48 | 1019.5 |
| 20260503150801 | 55 | 176 | 5.0 | 8.0 | 0.00 | 0.00 | 0.00 | 47 | 1019.5 |
| 20260503150701 | 55 | 223 | 2.0 | 8.0 | 0.00 | 0.00 | 0.00 | 48 | 1019.6 |
| 20260503150601 | 55 | 195 | 5.0 | 8.0 | 0.00 | 0.00 | 0.00 | 48 | 1019.6 |
| 20260503150502 | 55 | 180 | 4.0 | 8.0 | 0.00 | 0.00 | 0.00 | 48 | 1019.6 |
| 20260503150401 | 55 | 149 | 1.0 | 7.0 | 0.00 | 0.00 | 0.00 | 49 | 1019.6 |
| 20260503150301 | 55 | 192 | 5.0 | 7.0 | 0.00 | 0.00 | 0.00 | 49 | 1019.5 |
| 20260503150201 | 55 | 226 | 4.0 | 7.0 | 0.00 | 0.00 | 0.00 | 50 | 1019.5 |
| 20260503140300 | 51 | 300 | 0.0 | 5.0 | 0.00 | 0.00 | 0.00 | 58 | 1019.4 |
| 20260503140159 | 51 | 302 | 0.0 | 5.0 | 0.00 | 0.00 | 0.00 | 59 | 1019.4 |
| 20260503131359 | 47 | 15 | 1.0 | 9.0 | 0.00 | 0.00 | 0.00 | 58 | 1019.4 |
| 20260503131159 | 47 | 307 | 2.0 | 9.0 | 0.00 | 0.00 | 0.00 | 58 | 1019.4 |
| 20260503131059 | 47 | 236 | 2.0 | 9.0 | 0.00 | 0.00 | 0.00 | 57 | 1019.4 |
| 20260503130959 | 47 | 219 | 1.0 | 7.0 | 0.00 | 0.00 | 0.00 | 57 | 1019.3 |
| 20260503130759 | 47 | 204 | 2.0 | 6.0 | 0.00 | 0.00 | 0.00 | 59 | 1019.4 |
| 20260503130659 | 47 | 144 | 0.0 | 6.0 | 0.00 | 0.00 | 0.00 | 59 | 1019.4 |
| 20260503130500 | 46 | 209 | 1.0 | 6.0 | 0.00 | 0.00 | 0.00 | 61 | 1019.4 |
| 20260503130401 | 46 | 235 | 0.0 | 7.0 | 0.00 | 0.00 | 0.00 | 60 | 1019.4 |
| 20260503130259 | 46 | 277 | 2.0 | 9.0 | 0.00 | 0.00 | 0.00 | 60 | 1019.5 |
| 20260503130159 | 46 | 205 | 2.0 | 9.0 | 0.00 | 0.00 | 0.00 | 61 | 1019.4 |
| 20260503120200 | 43 | 126 | 2.0 | 7.0 | 0.00 | 0.00 | 0.00 | 64 | 1019.4 |
| 20260503110658 | 39 | 232 | 0.0 | 5.0 | 0.00 | 0.00 | 0.00 | 72 | 1018.7 |
| 20260503110558 | 39 | 185 | 3.0 | 5.0 | 0.00 | 0.00 | 0.00 | 72 | 1018.7 |
| 20260503110459 | 39 | 199 | 0.0 | 5.0 | 0.00 | 0.00 | 0.00 | 72 | 1018.7 |
| 20260503110359 | 39 | 184 | 1.0 | 5.0 | 0.00 | 0.00 | 0.00 | 72 | 1018.7 |
| 20260503110259 | 39 | 190 | 2.0 | 4.0 | 0.00 | 0.00 | 0.00 | 72 | 1018.7 |
| 20260503110158 | 39 | 169 | 4.0 | 4.0 | 0.00 | 0.00 | 0.00 | 72 | 1018.7 |
| 20260503100259 | 36 | 260 | 0.0 | 0.0 | 0.00 | 0.00 | 0.00 | 77 | 1018.2 |
| 20260503100159 | 36 | 260 | 0.0 | 0.0 | 0.00 | 0.00 | 0.00 | 77 | 1018.2 |
| 20260503090459 | 34 | 341 | 0.0 | 0.0 | 0.00 | 0.00 | 0.00 | 84 | 1018.3 |
| 20260503090401 | 34 | 342 | 0.0 | 0.0 | 0.00 | 0.00 | 0.00 | 84 | 1018.3 |
| 20260503090259 | 34 | 342 | 0.0 | 0.0 | 0.00 | 0.00 | 0.00 | 84 | 1018.3 |
| 20260503090201 | 34 | 342 | 0.0 | 0.0 | 0.00 | 0.00 | 0.00 | 85 | 1018.3 |
| 20260503081559 | 33 | 342 | 0.0 | 0.0 | 0.00 | 0.00 | 0.00 | 86 | 1018.1 |
| 20260503081459 | 33 | 342 | 0.0 | 0.0 | 0.00 | 0.00 | 0.00 | 86 | 1018.1 |
| 20260503081358 | 33 | 342 | 0.0 | 0.0 | 0.00 | 0.00 | 0.00 | 86 | 1018.2 |
| 20260503081259 | 33 | 342 | 0.0 | 0.0 | 0.00 | 0.00 | 0.00 | 86 | 1018.1 |
| 20260503080959 | 33 | 342 | 0.0 | 0.0 | 0.00 | 0.00 | 0.00 | 86 | 1018.1 |
| 20260503080859 | 33 | 342 | 0.0 | 0.0 | 0.00 | 0.00 | 0.00 | 86 | 1018.1 |
| 20260503080758 | 33 | 342 | 0.0 | 0.0 | 0.00 | 0.00 | 0.00 | 86 | 1018.1 |
| 20260503080659 | 33 | 342 | 0.0 | 0.0 | 0.00 | 0.00 | 0.00 | 86 | 1018.1 |
| 20260503080559 | 33 | 342 | 0.0 | 0.0 | 0.00 | 0.00 | 0.00 | 86 | 1018.1 |
| 20260503080458 | 33 | 342 | 0.0 | 0.0 | 0.00 | 0.00 | 0.00 | 86 | 1018.1 |
| 20260503080359 | 33 | 342 | 0.0 | 0.0 | 0.00 | 0.00 | 0.00 | 86 | 1018.1 |
| 20260503080259 | 33 | 342 | 0.0 | 0.0 | 0.00 | 0.00 | 0.00 | 86 | 1018.1 |
| 20260503080159 | 33 | 342 | 0.0 | 0.0 | 0.00 | 0.00 | 0.00 | 86 | 1018.0 |
| 20260503072858 | 34 | 342 | 0.0 | 0.0 | 0.00 | 0.00 | 0.00 | 86 | 1017.8 |
| 20260503072758 | 33 | 342 | 0.0 | 0.0 | 0.00 | 0.00 | 0.00 | 86 | 1017.9 |
| 20260503072658 | 33 | 342 | 0.0 | 0.0 | 0.00 | 0.00 | 0.00 | 86 | 1017.8 |
| 20260503072558 | 33 | 342 | 0.0 | 0.0 | 0.00 | 0.00 | 0.00 | 86 | 1017.8 |
| 20260503072359 | 34 | 342 | 0.0 | 0.0 | 0.00 | 0.00 | 0.00 | 86 | 1017.8 |
| 20260503072257 | 34 | 342 | 0.0 | 0.0 | 0.00 | 0.00 | 0.00 | 86 | 1017.9 |
| 20260503072157 | 34 | 342 | 0.0 | 0.0 | 0.00 | 0.00 | 0.00 | 86 | 1017.9 |
| 20260503072059 | 34 | 342 | 0.0 | 0.0 | 0.00 | 0.00 | 0.00 | 86 | 1017.8 |
| 20260503071957 | 34 | 342 | 0.0 | 0.0 | 0.00 | 0.00 | 0.00 | 86 | 1017.8 |
| 20260503071857 | 34 | 342 | 0.0 | 0.0 | 0.00 | 0.00 | 0.00 | 86 | 1017.8 |
| 20260503071757 | 34 | 342 | 0.0 | 0.0 | 0.00 | 0.00 | 0.00 | 86 | 1017.9 |
| 20260503071658 | 34 | 342 | 0.0 | 0.0 | 0.00 | 0.00 | 0.00 | 86 | 1017.9 |
| 20260503071458 | 34 | 342 | 0.0 | 0.0 | 0.00 | 0.00 | 0.00 | 86 | 1017.8 |
| 20260503071358 | 34 | 342 | 0.0 | 0.0 | 0.00 | 0.00 | 0.00 | 86 | 1017.8 |
| 20260503071257 | 34 | 342 | 0.0 | 0.0 | 0.00 | 0.00 | 0.00 | 86 | 1017.9 |
| 20260503071058 | 33 | 342 | 0.0 | 0.0 | 0.00 | 0.00 | 0.00 | 85 | 1017.8 |
| 20260503070958 | 33 | 342 | 0.0 | 0.0 | 0.00 | 0.00 | 0.00 | 85 | 1017.9 |
| 20260503070859 | 33 | 342 | 0.0 | 0.0 | 0.00 | 0.00 | 0.00 | 85 | 1017.9 |
| 20260503070758 | 33 | 342 | 0.0 | 0.0 | 0.00 | 0.00 | 0.00 | 85 | 1017.9 |
| 20260503070658 | 33 | 342 | 0.0 | 0.0 | 0.00 | 0.00 | 0.00 | 85 | 1017.9 |
| 20260503070458 | 33 | 342 | 0.0 | 0.0 | 0.00 | 0.00 | 0.00 | 85 | 1017.9 |
| 20260503070359 | 33 | 342 | 0.0 | 0.0 | 0.00 | 0.00 | 0.00 | 85 | 1017.9 |
| 20260503070258 | 33 | 342 | 0.0 | 0.0 | 0.00 | 0.00 | 0.00 | 85 | 1018.0 |
| 20260503070159 | 33 | 342 | 0.0 | 0.0 | 0.00 | 0.00 | 0.00 | 85 | 1017.9 |
| 20260503060259 | 34 | 342 | 0.0 | 0.0 | 0.00 | 0.00 | 0.00 | 82 | 1018.3 |
| 20260503060159 | 34 | 342 | 0.0 | 0.0 | 0.00 | 0.00 | 0.00 | 82 | 1018.4 |
| 20260503054958 | 35 | 342 | 0.0 | 0.0 | 0.00 | 0.00 | 0.00 | 82 | 1018.2 |
| 20260503054858 | 35 | 342 | 0.0 | 0.0 | 0.00 | 0.00 | 0.00 | 82 | 1018.3 |
| 20260503054758 | 35 | 342 | 0.0 | 0.0 | 0.00 | 0.00 | 0.00 | 82 | 1018.3 |
| 20260503054559 | 35 | 342 | 0.0 | 0.0 | 0.00 | 0.00 | 0.00 | 82 | 1018.4 |
| 20260503054459 | 35 | 342 | 0.0 | 0.0 | 0.00 | 0.00 | 0.00 | 82 | 1018.4 |
| 20260503054259 | 35 | 342 | 0.0 | 0.0 | 0.00 | 0.00 | 0.00 | 82 | 1018.4 |
| 20260503054201 | 35 | 342 | 0.0 | 0.0 | 0.00 | 0.00 | 0.00 | 82 | 1018.3 |
| 20260503054100 | 35 | 342 | 0.0 | 0.0 | 0.00 | 0.00 | 0.00 | 81 | 1018.4 |
| 20260503053659 | 35 | 342 | 0.0 | 0.0 | 0.00 | 0.00 | 0.00 | 81 | 1018.4 |
| 20260503053458 | 35 | 342 | 0.0 | 0.0 | 0.00 | 0.00 | 0.00 | 81 | 1018.3 |
| 20260503053400 | 35 | 342 | 0.0 | 0.0 | 0.00 | 0.00 | 0.00 | 82 | 1018.4 |
| 20260503053258 | 35 | 342 | 0.0 | 0.0 | 0.00 | 0.00 | 0.00 | 81 | 1018.3 |
| 20260503053200 | 35 | 342 | 0.0 | 0.0 | 0.00 | 0.00 | 0.00 | 81 | 1018.3 |
| 20260503053101 | 35 | 342 | 0.0 | 0.0 | 0.00 | 0.00 | 0.00 | 82 | 1018.4 |
| 20260503052958 | 35 | 342 | 0.0 | 0.0 | 0.00 | 0.00 | 0.00 | 82 | 1018.4 |
| 20260503052859 | 35 | 342 | 0.0 | 0.0 | 0.00 | 0.00 | 0.00 | 82 | 1018.4 |
| 20260503052800 | 35 | 342 | 0.0 | 0.0 | 0.00 | 0.00 | 0.00 | 82 | 1018.4 |
| 20260503052659 | 35 | 342 | 0.0 | 0.0 | 0.00 | 0.00 | 0.00 | 82 | 1018.5 |
| 20260503052601 | 35 | 342 | 0.0 | 0.0 | 0.00 | 0.00 | 0.00 | 82 | 1018.4 |
| 20260503052359 | 35 | 342 | 0.0 | 0.0 | 0.00 | 0.00 | 0.00 | 82 | 1018.4 |
| 20260503052259 | 35 | 342 | 0.0 | 0.0 | 0.00 | 0.00 | 0.00 | 82 | 1018.4 |
| 20260503052200 | 35 | 342 | 0.0 | 0.0 | 0.00 | 0.00 | 0.00 | 82 | 1018.4 |
| 20260503052059 | 35 | 342 | 0.0 | 0.0 | 0.00 | 0.00 | 0.00 | 82 | 1018.4 |
| 20260503051900 | 35 | 342 | 0.0 | 0.0 | 0.00 | 0.00 | 0.00 | 82 | 1018.3 |
| 20260503051759 | 35 | 342 | 0.0 | 0.0 | 0.00 | 0.00 | 0.00 | 82 | 1018.3 |
| 20260503051659 | 35 | 342 | 0.0 | 0.0 | 0.00 | 0.00 | 0.00 | 82 | 1018.4 |
| 20260503051559 | 35 | 342 | 0.0 | 0.0 | 0.00 | 0.00 | 0.00 | 81 | 1018.4 |
| 20260503051458 | 35 | 342 | 0.0 | 0.0 | 0.00 | 0.00 | 0.00 | 81 | 1018.4 |
| 20260503051358 | 35 | 342 | 0.0 | 0.0 | 0.00 | 0.00 | 0.00 | 81 | 1018.4 |
| 20260503051258 | 35 | 342 | 0.0 | 0.0 | 0.00 | 0.00 | 0.00 | 81 | 1018.3 |
| 20260503051159 | 35 | 342 | 0.0 | 0.0 | 0.00 | 0.00 | 0.00 | 81 | 1018.3 |
| 20260503051058 | 35 | 342 | 0.0 | 0.0 | 0.00 | 0.00 | 0.00 | 81 | 1018.3 |
| 20260503050900 | 35 | 342 | 0.0 | 0.0 | 0.00 | 0.00 | 0.00 | 81 | 1018.3 |
| 20260503050800 | 35 | 342 | 0.0 | 0.0 | 0.00 | 0.00 | 0.00 | 81 | 1018.3 |
| 20260503050701 | 35 | 342 | 0.0 | 0.0 | 0.00 | 0.00 | 0.00 | 81 | 1018.3 |
| 20260503050559 | 35 | 342 | 0.0 | 0.0 | 0.00 | 0.00 | 0.00 | 81 | 1018.3 |
| 20260503050459 | 35 | 342 | 0.0 | 0.0 | 0.00 | 0.00 | 0.00 | 81 | 1018.3 |
| 20260503050401 | 35 | 342 | 0.0 | 0.0 | 0.00 | 0.00 | 0.00 | 81 | 1018.4 |
| 20260503050258 | 35 | 342 | 0.0 | 0.0 | 0.00 | 0.00 | 0.00 | 80 | 1018.3 |
| 20260503050159 | 35 | 342 | 0.0 | 0.0 | 0.00 | 0.00 | 0.00 | 80 | 1018.3 |
| 20260503050059 | 35 | 342 | 0.0 | 0.0 | 0.00 | 0.00 | 0.00 | 80 | 1018.3 |
| 20260503045959 | 35 | 342 | 0.0 | 0.0 | 0.00 | 0.00 | 0.00 | 80 | 1018.4 |
| 20260503045759 | 35 | 342 | 0.0 | 0.0 | 0.00 | 0.00 | 0.00 | 80 | 1018.4 |
| 20260503045659 | 35 | 342 | 0.0 | 0.0 | 0.00 | 0.00 | 0.00 | 80 | 1018.4 |
| 20260503045600 | 35 | 342 | 0.0 | 0.0 | 0.00 | 0.00 | 0.00 | 80 | 1018.4 |
| 20260503045459 | 35 | 342 | 0.0 | 0.0 | 0.00 | 0.00 | 0.00 | 80 | 1018.3 |
| 20260503045358 | 35 | 342 | 0.0 | 0.0 | 0.00 | 0.00 | 0.00 | 80 | 1018.3 |
| 20260503045258 | 35 | 342 | 0.0 | 0.0 | 0.00 | 0.00 | 0.00 | 80 | 1018.4 |
| 20260503045159 | 35 | 342 | 0.0 | 0.0 | 0.00 | 0.00 | 0.00 | 80 | 1018.3 |
| 20260503045059 | 35 | 342 | 0.0 | 0.0 | 0.00 | 0.00 | 0.00 | 80 | 1018.3 |
| 20260503044959 | 35 | 342 | 0.0 | 0.0 | 0.00 | 0.00 | 0.00 | 80 | 1018.3 |
| 20260503044759 | 35 | 342 | 0.0 | 0.0 | 0.00 | 0.00 | 0.00 | 80 | 1018.4 |
| 20260503044700 | 35 | 342 | 0.0 | 0.0 | 0.00 | 0.00 | 0.00 | 80 | 1018.4 |
| 20260503044459 | 35 | 342 | 0.0 | 0.0 | 0.00 | 0.00 | 0.00 | 80 | 1018.4 |
| 20260503044359 | 35 | 342 | 0.0 | 0.0 | 0.00 | 0.00 | 0.00 | 80 | 1018.3 |
| 20260503044259 | 35 | 342 | 0.0 | 0.0 | 0.00 | 0.00 | 0.00 | 80 | 1018.4 |
| 20260503044200 | 35 | 342 | 0.0 | 0.0 | 0.00 | 0.00 | 0.00 | 80 | 1018.4 |
| 20260503044059 | 35 | 342 | 0.0 | 0.0 | 0.00 | 0.00 | 0.00 | 80 | 1018.4 |
| 20260503044000 | 35 | 342 | 0.0 | 0.0 | 0.00 | 0.00 | 0.00 | 80 | 1018.4 |
| 20260503043900 | 36 | 342 | 0.0 | 0.0 | 0.00 | 0.00 | 0.00 | 80 | 1018.3 |
| 20260503043800 | 36 | 342 | 0.0 | 0.0 | 0.00 | 0.00 | 0.00 | 79 | 1018.4 |
| 20260503043558 | 36 | 342 | 0.0 | 0.0 | 0.00 | 0.00 | 0.00 | 79 | 1018.4 |
| 20260503043500 | 36 | 342 | 0.0 | 0.0 | 0.00 | 0.00 | 0.00 | 79 | 1018.4 |
| 20260503043359 | 36 | 342 | 0.0 | 0.0 | 0.00 | 0.00 | 0.00 | 79 | 1018.4 |
| 20260503043300 | 36 | 342 | 0.0 | 0.0 | 0.00 | 0.00 | 0.00 | 79 | 1018.4 |
| 20260503043159 | 36 | 342 | 0.0 | 0.0 | 0.00 | 0.00 | 0.00 | 78 | 1018.4 |
| 20260503043101 | 36 | 342 | 0.0 | 0.0 | 0.00 | 0.00 | 0.00 | 78 | 1018.4 |
| 20260503042859 | 36 | 342 | 0.0 | 0.0 | 0.00 | 0.00 | 0.00 | 78 | 1018.3 |
| 20260503042700 | 36 | 342 | 0.0 | 0.0 | 0.00 | 0.00 | 0.00 | 78 | 1018.4 |
| 20260503042600 | 36 | 342 | 0.0 | 0.0 | 0.00 | 0.00 | 0.00 | 78 | 1018.4 |
| 20260503042500 | 36 | 342 | 0.0 | 0.0 | 0.00 | 0.00 | 0.00 | 78 | 1018.5 |
| 20260503042400 | 36 | 342 | 0.0 | 0.0 | 0.00 | 0.00 | 0.00 | 78 | 1018.5 |
| 20260503042201 | 36 | 342 | 0.0 | 0.0 | 0.00 | 0.00 | 0.00 | 78 | 1018.4 |
| 20260503042101 | 36 | 342 | 0.0 | 0.0 | 0.00 | 0.00 | 0.00 | 78 | 1018.4 |
| 20260503041959 | 36 | 342 | 0.0 | 0.0 | 0.00 | 0.00 | 0.00 | 78 | 1018.4 |
| 20260503041900 | 36 | 342 | 0.0 | 0.0 | 0.00 | 0.00 | 0.00 | 78 | 1018.4 |
| 20260503041802 | 36 | 342 | 0.0 | 0.0 | 0.00 | 0.00 | 0.00 | 78 | 1018.4 |
| 20260503041700 | 36 | 342 | 0.0 | 0.0 | 0.00 | 0.00 | 0.00 | 78 | 1018.4 |
| 20260503041502 | 36 | 342 | 0.0 | 0.0 | 0.00 | 0.00 | 0.00 | 78 | 1018.3 |
| 20260503041359 | 36 | 342 | 0.0 | 0.0 | 0.00 | 0.00 | 0.00 | 78 | 1018.4 |
| 20260503041300 | 36 | 342 | 0.0 | 0.0 | 0.00 | 0.00 | 0.00 | 78 | 1018.4 |
| 20260503041200 | 36 | 342 | 0.0 | 0.0 | 0.00 | 0.00 | 0.00 | 78 | 1018.4 |
| 20260503041002 | 36 | 342 | 0.0 | 0.0 | 0.00 | 0.00 | 0.00 | 78 | 1018.4 |
| 20260503040901 | 36 | 342 | 0.0 | 0.0 | 0.00 | 0.00 | 0.00 | 78 | 1018.4 |
| 20260503040802 | 36 | 342 | 0.0 | 0.0 | 0.00 | 0.00 | 0.00 | 78 | 1018.4 |
| 20260503040700 | 36 | 342 | 0.0 | 0.0 | 0.00 | 0.00 | 0.00 | 77 | 1018.4 |
| 20260503040600 | 36 | 342 | 0.0 | 0.0 | 0.00 | 0.00 | 0.00 | 77 | 1018.5 |
| 20260503040401 | 36 | 342 | 0.0 | 0.0 | 0.00 | 0.00 | 0.00 | 77 | 1018.4 |
| 20260503040301 | 36 | 342 | 0.0 | 0.0 | 0.00 | 0.00 | 0.00 | 77 | 1018.5 |
| 20260503040200 | 36 | 342 | 0.0 | 0.0 | 0.00 | 0.00 | 0.00 | 77 | 1018.5 |
| 20260503040101 | 36 | 342 | 0.0 | 0.0 | 0.00 | 0.00 | 0.00 | 77 | 1018.5 |
| 20260503040007 | 37 | 342 | 0.0 | 0.0 | 0.00 | 0.00 | 0.00 | 77 | 1018.5 |
| 20260503035901 | 37 | 342 | 0.0 | 0.0 | 0.00 | 0.00 | 0.00 | 77 | 1018.5 |
| 20260503035801 | 37 | 342 | 0.0 | 0.0 | 0.00 | 0.00 | 0.00 | 76 | 1018.5 |
| 20260503035702 | 37 | 342 | 0.0 | 0.0 | 0.00 | 0.00 | 0.00 | 76 | 1018.5 |
| 20260503035600 | 37 | 342 | 0.0 | 0.0 | 0.00 | 0.00 | 0.00 | 76 | 1018.6 |
| 20260503035501 | 37 | 342 | 0.0 | 0.0 | 0.00 | 0.00 | 0.00 | 76 | 1018.6 |
| 20260503035402 | 37 | 342 | 0.0 | 0.0 | 0.00 | 0.00 | 0.00 | 76 | 1018.5 |
| 20260503035200 | 37 | 342 | 0.0 | 0.0 | 0.00 | 0.00 | 0.00 | 76 | 1018.6 |
| 20260503035101 | 37 | 342 | 0.0 | 0.0 | 0.00 | 0.00 | 0.00 | 76 | 1018.6 |
| 20260503034902 | 37 | 342 | 0.0 | 0.0 | 0.00 | 0.00 | 0.00 | 76 | 1018.6 |
| 20260503034802 | 37 | 342 | 0.0 | 0.0 | 0.00 | 0.00 | 0.00 | 76 | 1018.6 |
| 20260503034700 | 37 | 342 | 0.0 | 0.0 | 0.00 | 0.00 | 0.00 | 75 | 1018.6 |
| 20260503034602 | 37 | 342 | 0.0 | 0.0 | 0.00 | 0.00 | 0.00 | 75 | 1018.6 |
| 20260503034500 | 37 | 342 | 0.0 | 0.0 | 0.00 | 0.00 | 0.00 | 75 | 1018.6 |
| 20260503034401 | 37 | 342 | 0.0 | 0.0 | 0.00 | 0.00 | 0.00 | 75 | 1018.5 |
| 20260503034301 | 37 | 342 | 0.0 | 0.0 | 0.00 | 0.00 | 0.00 | 75 | 1018.6 |
| 20260503034200 | 37 | 342 | 0.0 | 0.0 | 0.00 | 0.00 | 0.00 | 75 | 1018.6 |
| 20260503034103 | 37 | 342 | 0.0 | 0.0 | 0.00 | 0.00 | 0.00 | 75 | 1018.5 |
| 20260503034001 | 37 | 342 | 0.0 | 0.0 | 0.00 | 0.00 | 0.00 | 75 | 1018.6 |
| 20260503033901 | 37 | 342 | 0.0 | 0.0 | 0.00 | 0.00 | 0.00 | 75 | 1018.5 |
| 20260503033801 | 38 | 342 | 0.0 | 0.0 | 0.00 | 0.00 | 0.00 | 75 | 1018.6 |
| 20260503033701 | 38 | 342 | 0.0 | 0.0 | 0.00 | 0.00 | 0.00 | 75 | 1018.6 |
| 20260503033600 | 38 | 342 | 0.0 | 0.0 | 0.00 | 0.00 | 0.00 | 75 | 1018.6 |
| 20260503033500 | 38 | 342 | 0.0 | 0.0 | 0.00 | 0.00 | 0.00 | 75 | 1018.5 |
| 20260503033400 | 38 | 342 | 0.0 | 0.0 | 0.00 | 0.00 | 0.00 | 75 | 1018.5 |
| 20260503033300 | 38 | 342 | 0.0 | 0.0 | 0.00 | 0.00 | 0.00 | 75 | 1018.5 |
| 20260503033202 | 38 | 342 | 0.0 | 0.0 | 0.00 | 0.00 | 0.00 | 74 | 1018.5 |
| 20260503033101 | 38 | 342 | 0.0 | 0.0 | 0.00 | 0.00 | 0.00 | 74 | 1018.6 |
| 20260503033001 | 38 | 342 | 0.0 | 0.0 | 0.00 | 0.00 | 0.00 | 74 | 1018.5 |
| 20260503032902 | 38 | 342 | 0.0 | 0.0 | 0.00 | 0.00 | 0.00 | 74 | 1018.5 |
| 20260503032801 | 38 | 342 | 0.0 | 0.0 | 0.00 | 0.00 | 0.00 | 74 | 1018.5 |
| 20260503032601 | 38 | 342 | 0.0 | 0.0 | 0.00 | 0.00 | 0.00 | 74 | 1018.6 |
| 20260503032500 | 38 | 342 | 0.0 | 0.0 | 0.00 | 0.00 | 0.00 | 74 | 1018.5 |
| 20260503032400 | 38 | 342 | 0.0 | 0.0 | 0.00 | 0.00 | 0.00 | 74 | 1018.5 |
| 20260503032304 | 38 | 342 | 0.0 | 0.0 | 0.00 | 0.00 | 0.00 | 74 | 1018.6 |
| 20260503032201 | 38 | 342 | 0.0 | 0.0 | 0.00 | 0.00 | 0.00 | 74 | 1018.5 |
| 20260503032100 | 38 | 342 | 0.0 | 0.0 | 0.00 | 0.00 | 0.00 | 73 | 1018.5 |
| 20260503032000 | 38 | 342 | 0.0 | 0.0 | 0.00 | 0.00 | 0.00 | 73 | 1018.5 |
| 20260503031701 | 38 | 342 | 0.0 | 0.0 | 0.00 | 0.00 | 0.00 | 73 | 1018.4 |
| 20260503031500 | 39 | 342 | 0.0 | 0.0 | 0.00 | 0.00 | 0.00 | 72 | 1018.5 |
| 20260503031401 | 39 | 342 | 0.0 | 0.0 | 0.00 | 0.00 | 0.00 | 72 | 1018.5 |
| 20260503031301 | 39 | 342 | 0.0 | 0.0 | 0.00 | 0.00 | 0.00 | 72 | 1018.5 |
| 20260503031203 | 39 | 342 | 0.0 | 0.0 | 0.00 | 0.00 | 0.00 | 72 | 1018.5 |
| 20260503031104 | 39 | 342 | 0.0 | 0.0 | 0.00 | 0.00 | 0.00 | 72 | 1018.5 |
| 20260503031000 | 39 | 342 | 0.0 | 0.0 | 0.00 | 0.00 | 0.00 | 72 | 1018.5 |
| 20260503030901 | 39 | 342 | 0.0 | 0.0 | 0.00 | 0.00 | 0.00 | 72 | 1018.5 |
| 20260503030600 | 39 | 342 | 0.0 | 0.0 | 0.00 | 0.00 | 0.00 | 72 | 1018.5 |
| 20260503030501 | 39 | 342 | 0.0 | 0.0 | 0.00 | 0.00 | 0.00 | 72 | 1018.5 |
| 20260503030301 | 39 | 342 | 0.0 | 0.0 | 0.00 | 0.00 | 0.00 | 71 | 1018.5 |
| 20260503030200 | 39 | 342 | 0.0 | 0.0 | 0.00 | 0.00 | 0.00 | 71 | 1018.5 |
| 20260503030004 | 39 | 342 | 0.0 | 0.0 | 0.00 | 0.00 | 0.00 | 71 | 1018.5 |
| 20260503025900 | 39 | 342 | 0.0 | 0.0 | 0.00 | 0.00 | 0.00 | 71 | 1018.5 |
| 20260503025700 | 40 | 342 | 0.0 | 0.0 | 0.00 | 0.00 | 0.00 | 70 | 1018.4 |
| 20260503025500 | 40 | 342 | 0.0 | 0.0 | 0.00 | 0.00 | 0.00 | 70 | 1018.5 |
| 20260503025402 | 40 | 342 | 0.0 | 0.0 | 0.00 | 0.00 | 0.00 | 70 | 1018.5 |
| 20260503025259 | 40 | 342 | 0.0 | 0.0 | 0.00 | 0.00 | 0.00 | 70 | 1018.5 |
| 20260503025201 | 40 | 342 | 0.0 | 0.0 | 0.00 | 0.00 | 0.00 | 69 | 1018.5 |
| 20260503025101 | 40 | 342 | 0.0 | 0.0 | 0.00 | 0.00 | 0.00 | 69 | 1018.5 |
| 20260503025000 | 40 | 342 | 0.0 | 0.0 | 0.00 | 0.00 | 0.00 | 69 | 1018.5 |
| 20260503024803 | 40 | 342 | 0.0 | 0.0 | 0.00 | 0.00 | 0.00 | 69 | 1018.5 |
| 20260503024600 | 40 | 342 | 0.0 | 0.0 | 0.00 | 0.00 | 0.00 | 69 | 1018.5 |
| 20260503024501 | 40 | 342 | 0.0 | 0.0 | 0.00 | 0.00 | 0.00 | 69 | 1018.5 |
| 20260503024400 | 40 | 342 | 0.0 | 0.0 | 0.00 | 0.00 | 0.00 | 68 | 1018.5 |
| 20260503024300 | 40 | 342 | 0.0 | 0.0 | 0.00 | 0.00 | 0.00 | 68 | 1018.5 |
| 20260503024200 | 40 | 342 | 0.0 | 0.0 | 0.00 | 0.00 | 0.00 | 68 | 1018.5 |
| 20260503024102 | 40 | 342 | 0.0 | 0.0 | 0.00 | 0.00 | 0.00 | 68 | 1018.5 |
| 20260503024000 | 40 | 342 | 0.0 | 0.0 | 0.00 | 0.00 | 0.00 | 68 | 1018.4 |
| 20260503023900 | 40 | 342 | 0.0 | 0.0 | 0.00 | 0.00 | 0.00 | 68 | 1018.5 |
| 20260503023800 | 40 | 342 | 0.0 | 0.0 | 0.00 | 0.00 | 0.00 | 67 | 1018.5 |
| 20260503023600 | 41 | 342 | 0.0 | 0.0 | 0.00 | 0.00 | 0.00 | 67 | 1018.5 |
| 20260503023500 | 41 | 342 | 0.0 | 0.0 | 0.00 | 0.00 | 0.00 | 67 | 1018.5 |
| 20260503023402 | 41 | 342 | 0.0 | 0.0 | 0.00 | 0.00 | 0.00 | 67 | 1018.5 |
| 20260503023259 | 41 | 342 | 0.0 | 0.0 | 0.00 | 0.00 | 0.00 | 67 | 1018.5 |
| 20260503023201 | 41 | 342 | 0.0 | 0.0 | 0.00 | 0.00 | 0.00 | 67 | 1018.5 |
| 20260503023102 | 41 | 342 | 0.0 | 0.0 | 0.00 | 0.00 | 0.00 | 67 | 1018.5 |
| 20260503023002 | 41 | 342 | 0.0 | 0.0 | 0.00 | 0.00 | 0.00 | 66 | 1018.5 |
| 20260503022901 | 41 | 342 | 0.0 | 0.0 | 0.00 | 0.00 | 0.00 | 66 | 1018.5 |
| 20260503022800 | 41 | 342 | 0.0 | 0.0 | 0.00 | 0.00 | 0.00 | 66 | 1018.4 |
| 20260503022600 | 41 | 342 | 0.0 | 0.0 | 0.00 | 0.00 | 0.00 | 65 | 1018.4 |
| 20260503022500 | 41 | 342 | 0.0 | 0.0 | 0.00 | 0.00 | 0.00 | 65 | 1018.4 |
| 20260503022400 | 41 | 342 | 0.0 | 0.0 | 0.00 | 0.00 | 0.00 | 65 | 1018.4 |
| 20260503022201 | 41 | 342 | 0.0 | 0.0 | 0.00 | 0.00 | 0.00 | 64 | 1018.4 |
| 20260503022100 | 41 | 342 | 0.0 | 0.0 | 0.00 | 0.00 | 0.00 | 64 | 1018.4 |
| 20260503022000 | 41 | 342 | 0.0 | 0.0 | 0.00 | 0.00 | 0.00 | 64 | 1018.4 |
| 20260503021902 | 41 | 342 | 0.0 | 0.0 | 0.00 | 0.00 | 0.00 | 64 | 1018.4 |
| 20260503021800 | 42 | 342 | 0.0 | 0.0 | 0.00 | 0.00 | 0.00 | 64 | 1018.4 |
| 20260503021700 | 42 | 342 | 0.0 | 0.0 | 0.00 | 0.00 | 0.00 | 64 | 1018.4 |
| 20260503021601 | 42 | 342 | 0.0 | 0.0 | 0.00 | 0.00 | 0.00 | 64 | 1018.4 |
| 20260503021503 | 42 | 342 | 0.0 | 0.0 | 0.00 | 0.00 | 0.00 | 63 | 1018.4 |
| 20260503021359 | 42 | 342 | 0.0 | 0.0 | 0.00 | 0.00 | 0.00 | 63 | 1018.3 |
| 20260503021201 | 42 | 342 | 0.0 | 0.0 | 0.00 | 0.00 | 0.00 | 63 | 1018.3 |
| 20260503021100 | 42 | 342 | 0.0 | 0.0 | 0.00 | 0.00 | 0.00 | 63 | 1018.3 |
| 20260503020902 | 42 | 342 | 0.0 | 0.0 | 0.00 | 0.00 | 0.00 | 62 | 1018.3 |
| 20260503020801 | 42 | 342 | 0.0 | 0.0 | 0.00 | 0.00 | 0.00 | 62 | 1018.3 |
| 20260503020701 | 42 | 342 | 0.0 | 0.0 | 0.00 | 0.00 | 0.00 | 62 | 1018.3 |
| 20260503020600 | 42 | 342 | 0.0 | 0.0 | 0.00 | 0.00 | 0.00 | 62 | 1018.3 |
| 20260503020501 | 42 | 342 | 0.0 | 0.0 | 0.00 | 0.00 | 0.00 | 62 | 1018.3 |
| 20260503020401 | 42 | 342 | 0.0 | 0.0 | 0.00 | 0.00 | 0.00 | 62 | 1018.2 |
| 20260503020300 | 42 | 342 | 0.0 | 0.0 | 0.00 | 0.00 | 0.00 | 61 | 1018.2 |
| 20260503020005 | 43 | 342 | 0.0 | 0.0 | 0.00 | 0.00 | 0.00 | 61 | 1018.2 |
| 20260503015803 | 43 | 342 | 0.0 | 0.0 | 0.00 | 0.00 | 0.00 | 60 | 1018.2 |
| 20260503015702 | 43 | 342 | 0.0 | 0.0 | 0.00 | 0.00 | 0.00 | 60 | 1018.2 |
| 20260503015601 | 43 | 342 | 0.0 | 0.0 | 0.00 | 0.00 | 0.00 | 61 | 1018.2 |
| 20260503015502 | 43 | 342 | 0.0 | 0.0 | 0.00 | 0.00 | 0.00 | 60 | 1018.2 |
| 20260503015402 | 43 | 342 | 0.0 | 0.0 | 0.00 | 0.00 | 0.00 | 60 | 1018.2 |
| 20260503015301 | 43 | 342 | 0.0 | 0.0 | 0.00 | 0.00 | 0.00 | 60 | 1018.1 |
| 20260503015201 | 43 | 342 | 0.0 | 0.0 | 0.00 | 0.00 | 0.00 | 60 | 1018.2 |
| 20260503015001 | 43 | 342 | 0.0 | 0.0 | 0.00 | 0.00 | 0.00 | 60 | 1018.1 |
| 20260503014901 | 43 | 342 | 0.0 | 0.0 | 0.00 | 0.00 | 0.00 | 60 | 1018.1 |
| 20260503014802 | 43 | 342 | 0.0 | 1.0 | 0.00 | 0.00 | 0.00 | 60 | 1018.1 |
| 20260503014501 | 44 | 342 | 0.0 | 1.0 | 0.00 | 0.00 | 0.00 | 59 | 1018.1 |
| 20260503014301 | 44 | 342 | 0.0 | 1.0 | 0.00 | 0.00 | 0.00 | 59 | 1018.1 |
| 20260503014201 | 44 | 342 | 0.0 | 1.0 | 0.00 | 0.00 | 0.00 | 59 | 1018.1 |
| 20260503014002 | 44 | 342 | 0.0 | 1.0 | 0.00 | 0.00 | 0.00 | 58 | 1018.1 |
| 20260503013901 | 44 | 342 | 0.0 | 1.0 | 0.00 | 0.00 | 0.00 | 58 | 1018.1 |
| 20260503013802 | 44 | 342 | 0.0 | 1.0 | 0.00 | 0.00 | 0.00 | 58 | 1018.0 |
| 20260503013703 | 44 | 342 | 0.0 | 1.0 | 0.00 | 0.00 | 0.00 | 58 | 1018.0 |
| 20260503013502 | 44 | 342 | 0.0 | 1.0 | 0.00 | 0.00 | 0.00 | 58 | 1017.9 |
| 20260503013401 | 44 | 342 | 0.0 | 1.0 | 0.00 | 0.00 | 0.00 | 58 | 1017.9 |
| 20260503013301 | 45 | 342 | 0.0 | 1.0 | 0.00 | 0.00 | 0.00 | 57 | 1017.9 |
| 20260503013202 | 45 | 342 | 0.0 | 1.0 | 0.00 | 0.00 | 0.00 | 57 | 1017.9 |
| 20260503013100 | 45 | 342 | 0.0 | 2.0 | 0.00 | 0.00 | 0.00 | 57 | 1018.0 |
| 20260503013001 | 45 | 342 | 0.0 | 2.0 | 0.00 | 0.00 | 0.00 | 56 | 1018.0 |
| 20260503012900 | 45 | 342 | 0.0 | 2.0 | 0.00 | 0.00 | 0.00 | 56 | 1017.9 |
| 20260503012800 | 45 | 342 | 0.0 | 2.0 | 0.00 | 0.00 | 0.00 | 56 | 1017.9 |
| 20260503012700 | 45 | 342 | 0.0 | 2.0 | 0.00 | 0.00 | 0.00 | 56 | 1017.9 |
| 20260503012600 | 45 | 342 | 0.0 | 2.0 | 0.00 | 0.00 | 0.00 | 56 | 1018.0 |
| 20260503012500 | 45 | 342 | 0.0 | 2.0 | 0.00 | 0.00 | 0.00 | 56 | 1018.0 |
| 20260503012400 | 45 | 342 | 0.0 | 2.0 | 0.00 | 0.00 | 0.00 | 56 | 1017.8 |
| 20260503012200 | 45 | 360 | 0.0 | 0.0 | 0.00 | 0.00 | 0.00 | 55 | 1017.8 |
| 20260503012100 | 45 | 360 | 0.0 | 0.0 | 0.00 | 0.00 | 0.00 | 55 | 1017.8 |
| 20260503012000 | 45 | 360 | 0.0 | 0.0 | 0.00 | 0.00 | 0.00 | 55 | 1017.9 |
| 20260503011900 | 45 | 5 | 0.0 | 0.0 | 0.00 | 0.00 | 0.00 | 55 | 1017.8 |
| 20260503011803 | 45 | 5 | 0.0 | 0.0 | 0.00 | 0.00 | 0.00 | 55 | 1017.8 |
| 20260503011700 | 46 | 14 | 0.0 | 0.0 | 0.00 | 0.00 | 0.00 | 55 | 1017.8 |
| 20260503011503 | 46 | 14 | 0.0 | 0.0 | 0.00 | 0.00 | 0.00 | 54 | 1017.7 |
| 20260503011359 | 46 | 14 | 0.0 | 0.0 | 0.00 | 0.00 | 0.00 | 54 | 1017.8 |
| 20260503011301 | 46 | 14 | 0.0 | 0.0 | 0.00 | 0.00 | 0.00 | 54 | 1017.7 |
| 20260503011201 | 46 | 14 | 0.0 | 0.0 | 0.00 | 0.00 | 0.00 | 54 | 1017.7 |
| 20260503011102 | 46 | 14 | 0.0 | 0.0 | 0.00 | 0.00 | 0.00 | 54 | 1017.7 |
| 20260503011000 | 46 | 14 | 0.0 | 0.0 | 0.00 | 0.00 | 0.00 | 54 | 1017.6 |
| 20260503010901 | 46 | 14 | 0.0 | 2.0 | 0.00 | 0.00 | 0.00 | 53 | 1017.6 |
| 20260503010800 | 46 | 14 | 0.0 | 3.0 | 0.00 | 0.00 | 0.00 | 53 | 1017.7 |
| 20260503010700 | 46 | 14 | 0.0 | 3.0 | 0.00 | 0.00 | 0.00 | 53 | 1017.7 |
| 20260503010602 | 46 | 14 | 0.0 | 5.0 | 0.00 | 0.00 | 0.00 | 53 | 1017.6 |
| 20260503010501 | 46 | 14 | 0.0 | 5.0 | 0.00 | 0.00 | 0.00 | 53 | 1017.6 |
| 20260503010400 | 46 | 14 | 0.0 | 5.0 | 0.00 | 0.00 | 0.00 | 53 | 1017.6 |
| 20260503010301 | 46 | 16 | 0.0 | 5.0 | 0.00 | 0.00 | 0.00 | 53 | 1017.7 |
| 20260503010201 | 46 | 19 | 0.0 | 5.0 | 0.00 | 0.00 | 0.00 | 53 | 1017.6 |
| 20260503010001 | 46 | 5 | 2.0 | 5.0 | 0.00 | 0.00 | 0.00 | 53 | 1017.7 |
| 20260503005901 | 46 | 11 | 0.0 | 5.0 | 0.00 | 0.00 | 0.00 | 52 | 1017.7 |
| 20260503005800 | 46 | 10 | 0.0 | 5.0 | 0.00 | 0.00 | 0.00 | 52 | 1017.6 |
| 20260503005701 | 46 | 14 | 2.0 | 4.0 | 0.00 | 0.00 | 0.00 | 53 | 1017.6 |
| 20260503005600 | 47 | 15 | 2.0 | 4.0 | 0.00 | 0.00 | 0.00 | 52 | 1017.6 |
| 20260503005500 | 47 | 341 | 0.0 | 6.0 | 0.00 | 0.00 | 0.00 | 52 | 1017.6 |
| 20260503005400 | 47 | 347 | 0.0 | 6.0 | 0.00 | 0.00 | 0.00 | 52 | 1017.6 |
| 20260503005300 | 47 | 348 | 0.0 | 6.0 | 0.00 | 0.00 | 0.00 | 52 | 1017.5 |
| 20260503005200 | 47 | 348 | 1.0 | 6.0 | 0.00 | 0.00 | 0.00 | 52 | 1017.6 |
| 20260503005101 | 47 | 346 | 0.0 | 6.0 | 0.00 | 0.00 | 0.00 | 52 | 1017.6 |
| 20260503005000 | 47 | 333 | 2.0 | 6.0 | 0.00 | 0.00 | 0.00 | 52 | 1017.6 |
| 20260503004901 | 47 | 14 | 1.0 | 6.0 | 0.00 | 0.00 | 0.00 | 52 | 1017.5 |
| 20260503004801 | 47 | 23 | 0.0 | 6.0 | 0.00 | 0.00 | 0.00 | 51 | 1017.5 |
| 20260503004700 | 47 | 22 | 3.0 | 6.0 | 0.00 | 0.00 | 0.00 | 51 | 1017.5 |
| 20260503004603 | 47 | 360 | 3.0 | 3.0 | 0.00 | 0.00 | 0.00 | 52 | 1017.5 |
| 20260503004500 | 47 | 17 | 0.0 | 4.0 | 0.00 | 0.00 | 0.00 | 51 | 1017.5 |
| 20260503004402 | 47 | 27 | 3.0 | 4.0 | 0.00 | 0.00 | 0.00 | 51 | 1017.5 |
| 20260503004200 | 47 | 336 | 1.0 | 4.0 | 0.00 | 0.00 | 0.00 | 51 | 1017.6 |
| 20260503004000 | 47 | 5 | 1.0 | 4.0 | 0.00 | 0.00 | 0.00 | 51 | 1017.4 |
| 20260503003901 | 47 | 15 | 2.0 | 4.0 | 0.00 | 0.00 | 0.00 | 51 | 1017.4 |
| 20260503003800 | 47 | 343 | 2.0 | 4.0 | 0.00 | 0.00 | 0.00 | 51 | 1017.4 |
| 20260503003600 | 48 | 346 | 3.0 | 4.0 | 0.00 | 0.00 | 0.00 | 51 | 1017.4 |
| 20260503003500 | 48 | 335 | 0.0 | 1.0 | 0.00 | 0.00 | 0.00 | 51 | 1017.4 |
| 20260503003401 | 48 | 335 | 0.0 | 4.0 | 0.00 | 0.00 | 0.00 | 51 | 1017.3 |
| 20260503003301 | 48 | 335 | 0.0 | 4.0 | 0.00 | 0.00 | 0.00 | 50 | 1017.3 |
| 20260503003200 | 48 | 335 | 0.0 | 4.0 | 0.00 | 0.00 | 0.00 | 50 | 1017.3 |
| 20260503003102 | 48 | 335 | 0.0 | 4.0 | 0.00 | 0.00 | 0.00 | 50 | 1017.3 |
| 20260503002859 | 48 | 335 | 0.0 | 4.0 | 0.00 | 0.00 | 0.00 | 50 | 1017.2 |
| 20260503002801 | 48 | 335 | 0.0 | 5.0 | 0.00 | 0.00 | 0.00 | 49 | 1017.3 |
| 20260503002700 | 48 | 335 | 0.0 | 5.0 | 0.00 | 0.00 | 0.00 | 49 | 1017.3 |
| 20260503002601 | 48 | 334 | 1.0 | 5.0 | 0.00 | 0.00 | 0.00 | 49 | 1017.2 |
| 20260503002501 | 48 | 355 | 1.0 | 5.0 | 0.00 | 0.00 | 0.00 | 49 | 1017.2 |
| 20260503002300 | 48 | 5 | 2.0 | 5.0 | 0.00 | 0.00 | 0.00 | 49 | 1017.1 |
| 20260503002200 | 48 | 355 | 1.0 | 5.0 | 0.00 | 0.00 | 0.00 | 49 | 1017.2 |
| 20260503002100 | 48 | 331 | 0.0 | 5.0 | 0.00 | 0.00 | 0.00 | 48 | 1017.1 |
| 20260503002000 | 48 | 334 | 2.0 | 5.0 | 0.00 | 0.00 | 0.00 | 48 | 1017.0 |
| 20260503001900 | 48 | 325 | 1.0 | 4.0 | 0.00 | 0.00 | 0.00 | 49 | 1017.1 |
| 20260503001800 | 48 | 333 | 1.0 | 4.0 | 0.00 | 0.00 | 0.00 | 50 | 1017.1 |
| 20260503001701 | 49 | 333 | 3.0 | 6.0 | 0.00 | 0.00 | 0.00 | 49 | 1017.1 |
| 20260503001601 | 49 | 5 | 0.0 | 6.0 | 0.00 | 0.00 | 0.00 | 49 | 1017.1 |
| 20260503001402 | 49 | 333 | 2.0 | 6.0 | 0.00 | 0.00 | 0.00 | 49 | 1017.1 |
| 20260503001302 | 49 | 355 | 1.0 | 6.0 | 0.00 | 0.00 | 0.00 | 49 | 1017.0 |
| 20260503001201 | 49 | 350 | 2.0 | 6.0 | 0.00 | 0.00 | 0.00 | 50 | 1017.0 |
| 20260503001101 | 49 | 21 | 2.0 | 6.0 | 0.00 | 0.00 | 0.00 | 48 | 1017.0 |
| 20260503001001 | 49 | 22 | 0.0 | 10.0 | 0.00 | 0.00 | 0.00 | 48 | 1016.9 |
| 20260503000901 | 49 | 22 | 1.0 | 10.0 | 0.00 | 0.00 | 0.00 | 48 | 1016.9 |
| 20260503000700 | 49 | 350 | 2.0 | 10.0 | 0.00 | 0.00 | 0.00 | 48 | 1016.9 |
| 20260503000600 | 49 | 9 | 0.0 | 10.0 | 0.00 | 0.00 | 0.00 | 48 | 1016.9 |
| 20260503000501 | 49 | 9 | 0.0 | 10.0 | 0.00 | 0.00 | 0.00 | 48 | 1016.9 |
| 20260503000402 | 49 | 9 | 1.0 | 10.0 | 0.00 | 0.00 | 0.00 | 47 | 1016.9 |
| 20260503000300 | 49 | 5 | 2.0 | 10.0 | 0.00 | 0.00 | 0.00 | 47 | 1016.9 |
| 20260503000200 | 49 | 19 | 10.0 | 10.0 | 0.00 | 0.00 | 0.00 | 47 | 1016.8 |
| 20260503000100 | 49 | 57 | 0.0 | 5.0 | 0.00 | 0.00 | 0.00 | 47 | 1016.8 |
| 20260503000004 | 49 | 348 | 1.0 | 8.0 | 0.00 | 0.00 | 0.00 | 48 | 1016.8 |
| 20260502235903 | 49 | 326 | 0.0 | 8.0 | 0.00 | 0.00 | 0.00 | 47 | 1016.9 |
| 20260502235702 | 50 | 18 | 1.0 | 8.0 | 0.00 | 0.00 | 0.00 | 49 | 1016.9 |
| 20260502235602 | 50 | 360 | 0.0 | 8.0 | 0.00 | 0.00 | 0.00 | 48 | 1016.8 |
| 20260502235502 | 50 | 355 | 0.0 | 8.0 | 0.00 | 0.00 | 0.00 | 48 | 1016.8 |
| 20260502235401 | 50 | 355 | 0.0 | 8.0 | 0.00 | 0.00 | 0.00 | 47 | 1016.8 |
| 20260502235301 | 50 | 19 | 3.0 | 8.0 | 0.00 | 0.00 | 0.00 | 47 | 1016.8 |
| 20260502235202 | 50 | 360 | 4.0 | 8.0 | 0.00 | 0.00 | 0.00 | 46 | 1016.8 |
| 20260502235103 | 50 | 355 | 5.0 | 8.0 | 0.00 | 0.00 | 0.00 | 47 | 1016.8 |
| 20260502235002 | 50 | 9 | 0.0 | 4.0 | 0.00 | 0.00 | 0.00 | 47 | 1016.8 |
| 20260502234901 | 50 | 26 | 1.0 | 4.0 | 0.00 | 0.00 | 0.00 | 47 | 1016.8 |
| 20260502234801 | 50 | 347 | 0.0 | 4.0 | 0.00 | 0.00 | 0.00 | 46 | 1016.8 |
| 20260502234702 | 50 | 5 | 0.0 | 4.0 | 0.00 | 0.00 | 0.00 | 47 | 1016.8 |
| 20260502234602 | 50 | 24 | 1.0 | 5.0 | 0.00 | 0.00 | 0.00 | 46 | 1016.7 |
| 20260502234502 | 50 | 24 | 1.0 | 6.0 | 0.00 | 0.00 | 0.00 | 46 | 1016.7 |
| 20260502234400 | 50 | 355 | 2.0 | 6.0 | 0.00 | 0.00 | 0.00 | 46 | 1016.7 |
| 20260502234303 | 50 | 11 | 0.0 | 8.0 | 0.00 | 0.00 | 0.00 | 46 | 1016.7 |
| 20260502234202 | 50 | 5 | 0.0 | 8.0 | 0.00 | 0.00 | 0.00 | 47 | 1016.8 |
| 20260502234102 | 51 | 5 | 0.0 | 8.0 | 0.00 | 0.00 | 0.00 | 46 | 1016.7 |
| 20260502234001 | 51 | 16 | 3.0 | 8.0 | 0.00 | 0.00 | 0.00 | 46 | 1016.7 |
| 20260502233902 | 51 | 20 | 1.0 | 8.0 | 0.00 | 0.00 | 0.00 | 46 | 1016.7 |
| 20260502233802 | 51 | 12 | 0.0 | 8.0 | 0.00 | 0.00 | 0.00 | 46 | 1016.7 |
| 20260502233701 | 51 | 326 | 5.0 | 8.0 | 0.00 | 0.00 | 0.00 | 45 | 1016.7 |
| 20260502233601 | 51 | 336 | 3.0 | 8.0 | 0.00 | 0.00 | 0.00 | 45 | 1016.7 |
| 20260502233503 | 51 | 5 | 3.0 | 8.0 | 0.00 | 0.00 | 0.00 | 45 | 1016.7 |
| 20260502233400 | 51 | 344 | 1.0 | 3.0 | 0.00 | 0.00 | 0.00 | 45 | 1016.6 |
| 20260502233302 | 51 | 343 | 1.0 | 4.0 | 0.00 | 0.00 | 0.00 | 45 | 1016.6 |
| 20260502233201 | 51 | 342 | 1.0 | 6.0 | 0.00 | 0.00 | 0.00 | 45 | 1016.7 |
| 20260502233001 | 51 | 9 | 1.0 | 10.0 | 0.00 | 0.00 | 0.00 | 45 | 1016.6 |
| 20260502232901 | 51 | 351 | 0.0 | 10.0 | 0.00 | 0.00 | 0.00 | 44 | 1016.7 |
| 20260502232802 | 51 | 5 | 0.0 | 10.0 | 0.00 | 0.00 | 0.00 | 44 | 1016.7 |
| 20260502232701 | 51 | 5 | 0.0 | 10.0 | 0.00 | 0.00 | 0.00 | 44 | 1016.7 |
| 20260502232602 | 51 | 38 | 1.0 | 10.0 | 0.00 | 0.00 | 0.00 | 45 | 1016.6 |
| 20260502232402 | 51 | 333 | 3.0 | 10.0 | 0.00 | 0.00 | 0.00 | 44 | 1016.6 |
| 20260502232304 | 51 | 360 | 5.0 | 10.0 | 0.00 | 0.00 | 0.00 | 44 | 1016.6 |
| 20260502232201 | 51 | 341 | 1.0 | 5.0 | 0.00 | 0.00 | 0.00 | 45 | 1016.7 |
| 20260502232002 | 52 | 360 | 2.0 | 5.0 | 0.00 | 0.00 | 0.00 | 45 | 1016.7 |
| 20260502231901 | 52 | 9 | 2.0 | 5.0 | 0.00 | 0.00 | 0.00 | 45 | 1016.7 |
| 20260502231803 | 52 | 18 | 0.0 | 5.0 | 0.00 | 0.00 | 0.00 | 45 | 1016.6 |
| 20260502231700 | 52 | 9 | 1.0 | 5.0 | 0.00 | 0.00 | 0.00 | 45 | 1016.7 |
| 20260502231602 | 52 | 344 | 0.0 | 5.0 | 0.00 | 0.00 | 0.00 | 45 | 1016.6 |
| 20260502231502 | 52 | 348 | 2.0 | 5.0 | 0.00 | 0.00 | 0.00 | 44 | 1016.5 |
| 20260502231404 | 52 | 327 | 0.0 | 5.0 | 0.00 | 0.00 | 0.00 | 44 | 1016.5 |
| 20260502231301 | 52 | 360 | 2.0 | 8.0 | 0.00 | 0.00 | 0.00 | 44 | 1016.6 |
| 20260502231202 | 52 | 68 | 1.0 | 8.0 | 0.00 | 0.00 | 0.00 | 44 | 1016.5 |
| 20260502231102 | 52 | 31 | 1.0 | 8.0 | 0.00 | 0.00 | 0.00 | 44 | 1016.5 |
| 20260502231001 | 52 | 26 | 0.0 | 8.0 | 0.00 | 0.00 | 0.00 | 44 | 1016.7 |
| 20260502230902 | 52 | 24 | 3.0 | 8.0 | 0.00 | 0.00 | 0.00 | 44 | 1016.7 |
| 20260502230801 | 52 | 334 | 2.0 | 8.0 | 0.00 | 0.00 | 0.00 | 43 | 1016.6 |
| 20260502230701 | 52 | 329 | 1.0 | 8.0 | 0.00 | 0.00 | 0.00 | 43 | 1016.7 |
| 20260502230601 | 52 | 332 | 0.0 | 8.0 | 0.00 | 0.00 | 0.00 | 43 | 1016.7 |
| 20260502230502 | 52 | 344 | 5.0 | 8.0 | 0.00 | 0.00 | 0.00 | 42 | 1016.6 |
| 20260502230401 | 53 | 355 | 4.0 | 8.0 | 0.00 | 0.00 | 0.00 | 43 | 1016.7 |
| 20260502230302 | 53 | 333 | 0.0 | 2.0 | 0.00 | 0.00 | 0.00 | 43 | 1016.6 |
| 20260502230201 | 53 | 360 | 2.0 | 4.0 | 0.00 | 0.00 | 0.00 | 43 | 1016.5 |
| 20260502230101 | 53 | 248 | 1.0 | 4.0 | 0.00 | 0.00 | 0.00 | 43 | 1016.6 |
| 20260502230001 | 53 | 321 | 0.0 | 4.0 | 0.00 | 0.00 | 0.00 | 43 | 1016.6 |
| 20260502225902 | 53 | 317 | 0.0 | 4.0 | 0.00 | 0.00 | 0.00 | 43 | 1016.6 |
| 20260502225800 | 53 | 275 | 2.0 | 5.0 | 0.00 | 0.00 | 0.00 | 43 | 1016.6 |
| 20260502225602 | 53 | 355 | 0.0 | 5.0 | 0.00 | 0.00 | 0.00 | 44 | 1016.6 |
| 20260502225502 | 53 | 355 | 0.0 | 5.0 | 0.00 | 0.00 | 0.00 | 43 | 1016.6 |
| 20260502225400 | 53 | 355 | 1.0 | 5.0 | 0.00 | 0.00 | 0.00 | 44 | 1016.6 |
| 20260502225202 | 53 | 5 | 0.0 | 5.0 | 0.00 | 0.00 | 0.00 | 43 | 1016.5 |
| 20260502225101 | 53 | 5 | 1.0 | 5.0 | 0.00 | 0.00 | 0.00 | 43 | 1016.6 |
| 20260502225000 | 53 | 324 | 1.0 | 5.0 | 0.00 | 0.00 | 0.00 | 43 | 1016.5 |
| 20260502224900 | 53 | 355 | 2.0 | 5.0 | 0.00 | 0.00 | 0.00 | 43 | 1016.5 |
| 20260502224600 | 53 | 330 | 0.0 | 8.0 | 0.00 | 0.00 | 0.00 | 43 | 1016.5 |
| 20260502224500 | 53 | 334 | 1.0 | 8.0 | 0.00 | 0.00 | 0.00 | 43 | 1016.5 |
| 20260502224401 | 53 | 331 | 2.0 | 8.0 | 0.00 | 0.00 | 0.00 | 42 | 1016.5 |
| 20260502224300 | 53 | 350 | 1.0 | 8.0 | 0.00 | 0.00 | 0.00 | 44 | 1016.5 |
| 20260502224200 | 53 | 5 | 1.0 | 8.0 | 0.00 | 0.00 | 0.00 | 43 | 1016.5 |
| 20260502224101 | 53 | 342 | 2.0 | 8.0 | 0.00 | 0.00 | 0.00 | 43 | 1016.5 |
| 20260502224001 | 53 | 281 | 0.0 | 8.0 | 0.00 | 0.00 | 0.00 | 44 | 1016.6 |
| 20260502223901 | 53 | 300 | 2.0 | 8.0 | 0.00 | 0.00 | 0.00 | 44 | 1016.5 |
| 20260502223800 | 53 | 341 | 2.0 | 8.0 | 0.00 | 0.00 | 0.00 | 44 | 1016.6 |
| 20260502223700 | 53 | 346 | 3.0 | 4.0 | 0.00 | 0.00 | 0.00 | 43 | 1016.5 |
| 20260502223602 | 53 | 315 | 1.0 | 4.0 | 0.00 | 0.00 | 0.00 | 45 | 1016.5 |
| 20260502223503 | 53 | 350 | 3.0 | 4.0 | 0.00 | 0.00 | 0.00 | 45 | 1016.6 |
| 20260502223401 | 52 | 346 | 1.0 | 4.0 | 0.00 | 0.00 | 0.00 | 45 | 1016.5 |
| 20260502223300 | 52 | 15 | 0.0 | 4.0 | 0.00 | 0.00 | 0.00 | 44 | 1016.6 |
| 20260502223201 | 52 | 15 | 2.0 | 12.0 | 0.00 | 0.00 | 0.00 | 44 | 1016.6 |
| 20260502223002 | 52 | 350 | 2.0 | 12.0 | 0.00 | 0.00 | 0.00 | 44 | 1016.6 |
| 20260502222901 | 52 | 349 | 2.0 | 12.0 | 0.00 | 0.00 | 0.00 | 43 | 1016.6 |
| 20260502222802 | 52 | 355 | 2.0 | 12.0 | 0.00 | 0.00 | 0.00 | 44 | 1016.6 |
| 20260502222703 | 52 | 351 | 0.0 | 12.0 | 0.00 | 0.00 | 0.00 | 43 | 1016.6 |
| 20260502222501 | 52 | 332 | 4.0 | 12.0 | 0.00 | 0.00 | 0.00 | 42 | 1016.6 |
| 20260502222402 | 53 | 5 | 3.0 | 12.0 | 0.00 | 0.00 | 0.00 | 42 | 1016.6 |
| 20260502222305 | 53 | 38 | 10.0 | 12.0 | 0.00 | 0.00 | 0.00 | 42 | 1016.5 |
| 20260502222201 | 53 | 355 | 0.0 | 9.0 | 0.00 | 0.00 | 0.00 | 42 | 1016.6 |
| 20260502222000 | 53 | 34 | 2.0 | 9.0 | 0.00 | 0.00 | 0.00 | 41 | 1016.6 |
| 20260502221900 | 53 | 9 | 0.0 | 9.0 | 0.00 | 0.00 | 0.00 | 41 | 1016.6 |
| 20260502221801 | 53 | 350 | 3.0 | 9.0 | 0.00 | 0.00 | 0.00 | 41 | 1016.7 |
| 20260502221701 | 53 | 324 | 3.0 | 9.0 | 0.00 | 0.00 | 0.00 | 42 | 1016.6 |
| 20260502221502 | 53 | 39 | 4.0 | 10.0 | 0.00 | 0.00 | 0.00 | 42 | 1016.5 |
| 20260502221401 | 53 | 320 | 0.0 | 10.0 | 0.00 | 0.00 | 0.00 | 43 | 1016.5 |
| 20260502221302 | 53 | 350 | 6.0 | 10.0 | 0.00 | 0.00 | 0.00 | 43 | 1016.5 |
| 20260502221201 | 53 | 16 | 5.0 | 10.0 | 0.00 | 0.00 | 0.00 | 43 | 1016.5 |
| 20260502221101 | 54 | 22 | 2.0 | 10.0 | 0.00 | 0.00 | 0.00 | 43 | 1016.5 |
| 20260502221001 | 54 | 5 | 2.0 | 10.0 | 0.00 | 0.00 | 0.00 | 43 | 1016.5 |
| 20260502220902 | 54 | 5 | 0.0 | 10.0 | 0.00 | 0.00 | 0.00 | 42 | 1016.5 |
| 20260502220802 | 53 | 346 | 2.0 | 10.0 | 0.00 | 0.00 | 0.00 | 43 | 1016.5 |
| 20260502220601 | 53 | 360 | 2.0 | 10.0 | 0.00 | 0.00 | 0.00 | 44 | 1016.3 |
| 20260502220502 | 53 | 304 | 0.0 | 10.0 | 0.00 | 0.00 | 0.00 | 43 | 1016.3 |
| 20260502220401 | 53 | 319 | 2.0 | 10.0 | 0.00 | 0.00 | 0.00 | 43 | 1016.3 |
| 20260502220302 | 53 | 290 | 1.0 | 10.0 | 0.00 | 0.00 | 0.00 | 42 | 1016.3 |
| 20260502220203 | 53 | 16 | 1.0 | 10.0 | 0.00 | 0.00 | 0.00 | 43 | 1016.4 |
| 20260502220001 | 54 | 343 | 0.0 | 10.0 | 0.00 | 0.00 | 0.00 | 42 | 1016.5 |
| 20260502215800 | 54 | 348 | 2.0 | 10.0 | 0.00 | 0.00 | 0.00 | 42 | 1016.5 |
| 20260502215700 | 54 | 61 | 3.0 | 8.0 | 0.00 | 0.00 | 0.00 | 41 | 1016.4 |
| 20260502215600 | 54 | 37 | 2.0 | 8.0 | 0.00 | 0.00 | 0.00 | 42 | 1016.5 |
| 20260502215501 | 54 | 10 | 1.0 | 8.0 | 0.00 | 0.00 | 0.00 | 42 | 1016.5 |
| 20260502215402 | 54 | 11 | 3.0 | 8.0 | 0.00 | 0.00 | 0.00 | 42 | 1016.5 |
| 20260502215300 | 54 | 5 | 1.0 | 8.0 | 0.00 | 0.00 | 0.00 | 42 | 1016.5 |
| 20260502215200 | 54 | 355 | 2.0 | 8.0 | 0.00 | 0.00 | 0.00 | 42 | 1016.5 |
| 20260502215100 | 54 | 355 | 2.0 | 8.0 | 0.00 | 0.00 | 0.00 | 42 | 1016.5 |
| 20260502214959 | 55 | 315 | 2.0 | 8.0 | 0.00 | 0.00 | 0.00 | 42 | 1016.4 |
| 20260502214859 | 55 | 13 | 5.0 | 5.0 | 0.00 | 0.00 | 0.00 | 43 | 1016.4 |
| 20260502214759 | 55 | 344 | 1.0 | 5.0 | 0.00 | 0.00 | 0.00 | 43 | 1016.4 |
| 20260502214559 | 54 | 36 | 3.0 | 9.0 | 0.00 | 0.00 | 0.00 | 41 | 1016.3 |
| 20260502214459 | 54 | 355 | 0.0 | 9.0 | 0.00 | 0.00 | 0.00 | 43 | 1016.3 |
| 20260502214401 | 54 | 347 | 0.0 | 9.0 | 0.00 | 0.00 | 0.00 | 43 | 1016.4 |
| 20260502214303 | 54 | 346 | 2.0 | 9.0 | 0.00 | 0.00 | 0.00 | 40 | 1016.4 |
| 20260502214000 | 54 | 341 | 1.0 | 9.0 | 0.00 | 0.00 | 0.00 | 42 | 1016.4 |
| 20260502213901 | 54 | 344 | 2.0 | 9.0 | 0.00 | 0.00 | 0.00 | 43 | 1016.4 |
| 20260502213800 | 54 | 319 | 4.0 | 9.0 | 0.00 | 0.00 | 0.00 | 42 | 1016.4 |
| 20260502213559 | 54 | 355 | 1.0 | 5.0 | 0.00 | 0.00 | 0.00 | 42 | 1016.3 |
| 20260502213500 | 54 | 350 | 1.0 | 5.0 | 0.00 | 0.00 | 0.00 | 41 | 1016.3 |
| 20260502213401 | 54 | 5 | 2.0 | 5.0 | 0.00 | 0.00 | 0.00 | 41 | 1016.3 |
| 20260502213201 | 54 | 20 | 1.0 | 5.0 | 0.00 | 0.00 | 0.00 | 41 | 1016.3 |
| 20260502213101 | 54 | 341 | 2.0 | 5.0 | 0.00 | 0.00 | 0.00 | 41 | 1016.3 |
| 20260502213000 | 54 | 340 | 4.0 | 5.0 | 0.00 | 0.00 | 0.00 | 41 | 1016.3 |
| 20260502212900 | 54 | 80 | 2.0 | 4.0 | 0.00 | 0.00 | 0.00 | 42 | 1016.3 |
| 20260502212800 | 54 | 11 | 1.0 | 4.0 | 0.00 | 0.00 | 0.00 | 42 | 1016.3 |
| 20260502212700 | 54 | 163 | 1.0 | 8.0 | 0.00 | 0.00 | 0.00 | 41 | 1016.4 |
| 20260502212600 | 54 | 355 | 1.0 | 8.0 | 0.00 | 0.00 | 0.00 | 42 | 1016.3 |
| 20260502212502 | 54 | 327 | 0.0 | 8.0 | 0.00 | 0.00 | 0.00 | 42 | 1016.3 |
| 20260502212402 | 54 | 140 | 0.0 | 8.0 | 0.00 | 0.00 | 0.00 | 42 | 1016.3 |
| 20260502212300 | 54 | 360 | 0.0 | 8.0 | 0.00 | 0.00 | 0.00 | 44 | 1016.4 |
| 20260502212200 | 54 | 360 | 0.0 | 8.0 | 0.00 | 0.00 | 0.00 | 44 | 1016.3 |
| 20260502212001 | 54 | 313 | 0.0 | 8.0 | 0.00 | 0.00 | 0.00 | 42 | 1016.2 |
| 20260502211900 | 54 | 324 | 0.0 | 8.0 | 0.00 | 0.00 | 0.00 | 41 | 1016.3 |
| 20260502211802 | 54 | 355 | 3.0 | 4.0 | 0.00 | 0.00 | 0.00 | 42 | 1016.3 |
| 20260502211700 | 53 | 338 | 0.0 | 4.0 | 0.00 | 0.00 | 0.00 | 43 | 1016.3 |
| 20260502211602 | 53 | 336 | 0.0 | 4.0 | 0.00 | 0.00 | 0.00 | 42 | 1016.4 |
| 20260502211501 | 54 | 340 | 1.0 | 9.0 | 0.00 | 0.00 | 0.00 | 43 | 1016.4 |
| 20260502211301 | 54 | 342 | 2.0 | 9.0 | 0.00 | 0.00 | 0.00 | 41 | 1016.3 |
| 20260502211000 | 54 | 338 | 2.0 | 9.0 | 0.00 | 0.00 | 0.00 | 41 | 1016.3 |
| 20260502210901 | 54 | 355 | 1.0 | 9.0 | 0.00 | 0.00 | 0.00 | 40 | 1016.3 |
| 20260502210800 | 54 | 333 | 1.0 | 9.0 | 0.00 | 0.00 | 0.00 | 39 | 1016.3 |
| 20260502210701 | 55 | 355 | 5.0 | 9.0 | 0.00 | 0.00 | 0.00 | 39 | 1016.2 |
| 20260502210559 | 55 | 350 | 2.0 | 8.0 | 0.00 | 0.00 | 0.00 | 39 | 1016.3 |
| 20260502210501 | 55 | 329 | 1.0 | 8.0 | 0.00 | 0.00 | 0.00 | 37 | 1016.2 |
| 20260502210400 | 55 | 23 | 3.0 | 8.0 | 0.00 | 0.00 | 0.00 | 38 | 1016.3 |
| 20260502210300 | 56 | 284 | 4.0 | 7.0 | 0.00 | 0.00 | 0.00 | 39 | 1016.3 |
| 20260502210201 | 56 | 334 | 1.0 | 5.0 | 0.00 | 0.00 | 0.00 | 38 | 1016.2 |
| 20260502210100 | 56 | 319 | 0.0 | 5.0 | 0.00 | 0.00 | 0.00 | 40 | 1016.2 |
| 20260502210002 | 56 | 5 | 1.0 | 5.0 | 0.00 | 0.00 | 0.00 | 39 | 1016.2 |
| 20260502205900 | 56 | 38 | 0.0 | 5.0 | 0.00 | 0.00 | 0.00 | 39 | 1016.2 |
| 20260502205800 | 56 | 327 | 1.0 | 5.0 | 0.00 | 0.00 | 0.00 | 41 | 1016.2 |
| 20260502205701 | 56 | 308 | 1.0 | 5.0 | 0.00 | 0.00 | 0.00 | 40 | 1016.3 |
| 20260502205600 | 56 | 11 | 1.0 | 5.0 | 0.00 | 0.00 | 0.00 | 39 | 1016.2 |
| 20260502205500 | 56 | 355 | 2.0 | 5.0 | 0.00 | 0.00 | 0.00 | 40 | 1016.2 |